GFSNW_sfc_dewp_138.txt.gz
Dewpoint
47 51 52 52 51 48 45 41 32 45 44 33 35 33 31 34 29 24 20 20 22 20 21 19 20 17 19 20 17 15 22 21 18 14 19 19 19 21 20 22 18 25 26 26
44 43 42 47 48 46 42 35 37 45 41 31 30 32 32 31 29 23 20 23 24 24 22 18 19 17 22 21 17 22 24 24 22 13 16 18 19 24 21 23 24 24 26 27
42 43 44 44 46 47 43 36 30 36 39 38 29 32 33 30 26 19 24 20 20 19 18 17 18 22 24 21 20 34 31 25 25 24 28 28 27 24 23 23 24 27 28 29
42 44 44 45 45 46 44 40 34 34 29 34 34 32 35 24 20 18 19 19 18 19 18 16 15 24 24 20 29 26 29 24 22 19 15 24 24 21 24 24 24 24 30 27
44 44 43 44 45 46 43 34 34 32 31 35 34 34 27 20 17 19 18 20 19 20 20 17 18 23 22 18 25 25 28 27 20 18 18 30 25 23 22 23 25 26 31 29
42 42 43 43 45 45 40 43 36 34 33 34 34 33 28 25 26 25 22 19 21 22 18 18 20 23 21 23 25 28 28 28 21 20 24 30 26 32 29 26 26 27 25 28
42 42 43 44 44 45 44 45 43 37 32 33 33 29 26 26 22 23 19 20 22 24 28 28 28 26 24 27 28 27 26 25 24 26 27 19 29 31 30 31 29 31 28 30
42 42 43 43 44 45 45 46 43 36 34 35 30 24 25 25 26 25 23 24 28 32 29 26 22 25 24 24 26 27 28 25 26 23 22 26 24 26 27 26 26 26 25 26
42 43 43 43 44 43 44 46 45 43 34 32 29 29 28 29 27 28 32 31 36 34 26 28 16 16 17 20 22 25 25 29 26 24 18 18 26 25 27 28 25 26 25 26
43 43 44 44 43 44 42 45 49 45 41 32 32 29 31 28 28 30 31 31 30 33 31 27 24 21 18 20 25 25 27 27 25 24 20 25 24 26 29 22 25 27 27 27
42 43 44 43 43 44 41 45 50 47 41 38 34 32 31 29 30 29 31 29 29 31 29 26 26 27 23 25 25 25 25 24 25 25 20 22 25 28 26 31 29 27 27 27
44 44 43 43 43 44 42 41 45 46 40 37 40 39 38 36 33 32 33 29 28 28 32 31 31 29 31 27 27 26 27 27 29 28 28 30 31 31 30 29 28 27 26 25
45 44 43 42 42 42 41 46 44 42 41 36 34 33 36 36 38 40 29 30 32 33 38 35 34 27 32 28 27 27 29 28 31 28 28 27 28 28 28 28 27 25 25 24
45 44 43 41 40 40 43 47 44 42 34 34 31 34 34 34 34 38 39 38 37 37 36 33 32 30 30 27 30 28 26 29 32 29 29 27 26 28 28 27 26 24 23 22
44 43 43 41 40 41 43 43 45 44 34 32 33 34 33 33 33 33 36 37 36 32 35 38 31 28 29 28 27 31 27 32 30 32 32 30 29 29 28 27 25 24 23 22
44 43 38 40 42 42 38 42 41 42 37 34 29 34 32 33 33 33 33 34 33 30 31 37 34 32 34 33 24 29 30 33 34 34 34 33 32 29 28 27 25 23 23 22
42 41 41 42 41 40 36 37 38 41 43 34 29 29 35 33 32 33 33 33 31 30 29 30 27 26 29 32 27 28 29 29 31 33 33 31 29 29 28 27 25 24 21 21
43 43 42 42 42 41 34 38 41 42 38 32 31 31 32 34 32 30 33 30 30 31 29 28 29 27 29 30 27 28 27 29 31 30 29 30 30 28 26 25 23 22 21 20
40 39 40 39 36 33 33 41 41 45 39 34 35 28 28 34 34 31 31 31 33 30 31 28 27 29 30 29 27 26 27 28 28 28 28 28 27 26 25 24 23 21 20 19
37 34 37 34 36 40 41 38 40 38 31 33 33 31 31 31 35 33 32 32 30 28 29 29 29 31 33 28 27 27 28 28 28 27 26 26 25 25 24 23 22 20 18 18
35 37 35 35 38 35 36 35 31 28 27 29 31 31 32 33 32 33 32 32 29 24 27 27 26 26 33 27 29 29 29 29 28 28 28 27 26 25 24 22 20 19 18 16
36 36 37 36 31 33 32 27 24 21 23 29 33 32 32 36 38 32 32 27 28 25 31 28 24 32 31 28 29 30 31 30 29 28 28 28 26 25 23 20 18 18 18 17
35 34 34 35 31 25 21 18 20 26 30 34 35 34 34 34 33 34 33 28 27 31 28 23 30 32 29 30 30 30 30 31 29 29 29 27 27 26 24 22 20 19 17 16
35 31 21 27 24 23 29 30 31 33 34 35 36 34 33 36 32 33 28 30 29 24 22 23 34 31 31 31 31 30 29 31 30 29 26 23 21 20 20 19 19 17 15 14
31 28 23 24 29 31 32 35 33 34 38 37 35 33 32 33 30 31 27 25 21 22 24 34 35 32 30 29 29 30 28 26 26 26 23 21 19 19 18 18 19 18 15 14
28 27 26 29 30 30 33 33 33 35 37 37 35 30 31 29 29 25 23 20 19 31 36 36 33 33 32 31 32 29 27 27 27 26 23 21 18 18 19 19 19 16 15 14
25 28 34 34 33 32 33 35 34 37 36 32 29 27 24 30 24 22 25 29 34 36 37 36 33 32 32 31 29 27 26 27 26 24 22 20 20 20 18 18 19 17 17 15

GFSNW_sfc_dewp_141.txt.gz
Dewpoint
44 44 44 46 51 52 49 44 35 45 44 34 35 33 30 33 30 32 32 35 32 27 21 18 22 22 24 23 20 15 27 26 19 14 17 18 23 28 24 21 22 25 24 22
44 43 44 45 46 47 42 39 38 45 41 31 31 33 32 32 30 31 32 29 27 27 26 22 24 24 28 25 21 25 26 24 21 19 18 19 21 24 23 26 26 22 17 19
42 43 44 45 46 47 42 35 30 36 39 37 31 31 31 31 33 30 28 27 27 27 26 28 25 24 28 26 29 35 32 26 26 18 24 28 26 24 24 24 24 21 20 23
44 44 43 44 45 46 44 38 33 34 29 31 32 31 33 31 28 27 29 28 26 26 27 28 26 27 23 24 29 29 30 27 26 23 25 27 26 25 25 24 25 24 28 25
43 44 44 44 45 46 41 33 33 32 31 36 34 33 32 29 30 23 24 25 26 26 27 28 22 27 24 22 27 27 29 27 25 22 21 29 26 23 25 25 26 28 28 26
42 44 43 43 45 45 40 41 39 33 31 33 34 31 32 33 28 26 23 24 25 25 25 21 26 26 25 24 26 27 28 28 22 21 26 27 22 26 27 27 28 28 24 27
42 42 42 43 44 45 43 43 42 36 29 33 34 33 32 30 27 26 26 24 26 29 28 27 27 24 23 27 27 31 30 28 27 27 28 19 25 33 31 26 29 28 29 29
43 42 42 44 43 45 44 44 42 39 31 34 34 32 31 30 29 26 27 28 30 31 29 26 25 25 27 27 27 29 30 28 25 28 26 26 27 28 28 26 25 29 28 26
42 42 43 43 44 44 44 45 45 42 36 35 36 34 34 32 27 31 31 33 35 30 29 28 22 22 24 24 25 28 28 30 27 25 22 21 26 28 29 28 23 27 26 26
43 43 43 44 44 44 44 42 46 44 36 37 37 34 34 30 34 33 31 31 30 32 28 26 23 22 23 22 25 25 27 27 24 24 24 25 26 29 30 22 21 29 28 28
44 44 44 44 44 45 43 42 46 44 38 38 36 36 32 34 33 31 32 31 31 31 28 27 26 26 23 26 28 27 27 25 24 25 23 22 29 29 25 26 30 29 28 27
44 44 44 44 44 45 44 41 49 49 39 38 39 39 39 39 33 33 33 29 29 33 31 30 30 29 29 28 26 30 24 29 26 27 26 30 31 31 31 30 28 27 27 27
44 43 44 43 44 43 43 43 46 41 38 38 37 36 36 37 38 34 31 32 33 35 37 34 32 28 32 27 26 28 30 32 28 28 28 28 28 29 29 28 27 26 25 24
44 43 43 42 43 44 44 45 45 44 37 33 34 36 34 38 39 39 38 36 37 37 37 32 32 27 31 29 29 29 29 31 28 27 29 28 27 28 29 26 26 24 23 23
44 43 43 41 40 42 44 44 44 42 38 33 32 34 36 36 37 37 38 36 34 33 33 32 29 30 30 30 33 29 30 29 25 22 28 28 28 29 28 27 25 24 23 21
44 42 39 41 41 43 41 36 44 39 40 34 30 36 35 35 36 35 34 34 33 33 34 32 32 32 32 26 27 32 34 34 33 31 32 31 30 29 28 27 26 24 23 22
42 40 40 41 41 40 38 37 40 42 42 34 29 30 35 35 34 34 34 34 34 33 31 30 27 27 31 28 26 30 32 33 33 32 30 29 29 28 28 26 25 24 22 22
41 43 42 42 42 41 36 40 42 42 40 35 29 30 30 34 30 30 35 31 33 32 31 30 29 27 30 26 28 28 30 32 31 31 31 30 30 29 27 25 22 21 21 20
41 39 40 40 38 35 35 42 43 43 38 32 30 27 24 34 32 32 31 33 26 32 29 29 30 28 25 29 28 28 30 29 29 30 29 29 27 27 26 24 24 21 21 20
38 39 35 32 35 40 40 39 33 35 34 36 30 31 27 33 29 29 29 31 26 23 28 31 28 27 31 30 29 29 30 29 29 28 27 27 26 25 24 23 23 21 20 20
38 33 32 35 40 37 35 30 28 30 27 33 33 31 31 33 27 26 29 24 27 22 26 26 25 25 29 29 29 30 30 30 29 28 28 27 26 25 25 24 22 21 20 17
38 36 38 38 34 32 27 26 26 26 25 30 31 31 34 33 34 27 27 24 25 25 29 22 22 28 30 29 29 29 29 29 29 29 28 28 27 26 24 21 20 19 17 14
37 36 30 31 27 19 19 16 25 24 29 31 31 28 31 32 33 28 25 20 20 28 20 20 26 30 29 30 29 29 29 28 28 28 27 26 25 23 21 17 16 14 11 9
31 27 16 20 18 24 29 30 28 30 30 31 31 29 29 30 28 27 16 25 26 18 15 21 27 29 29 29 29 29 28 26 26 21 19 18 18 14 12 15 13 11 9 5
28 27 20 20 29 28 30 30 30 31 31 31 30 31 31 28 24 28 23 18 16 21 20 30 27 29 29 29 29 27 25 24 21 17 15 14 14 15 11 10 11 10 8 6
29 29 24 27 25 26 30 29 27 32 33 31 30 28 25 24 25 24 19 21 18 23 31 32 27 27 26 26 26 23 22 22 20 17 15 14 13 13 12 11 10 8 8 6
26 28 32 31 27 29 31 31 29 35 32 29 29 24 23 28 23 23 26 22 29 32 30 28 29 27 25 24 22 21 22 21 20 17 16 12 13 14 15 13 9 10 9 6

GFSNW_sfc_dewp_147.txt.gz
Dewpoint
44 44 46 46 46 48 47 41 31 42 45 35 35 30 28 30 26 26 26 31 29 30 29 24 20 21 21 24 22 19 22 24 17 17 19 18 18 24 26 24 22 24 19 15
44 45 45 45 47 47 45 37 37 45 43 27 28 29 28 28 26 26 25 24 28 26 29 29 27 22 27 25 22 25 27 28 21 21 18 21 23 26 27 28 25 22 17 15
45 45 44 45 46 46 45 39 32 38 40 35 27 26 27 27 30 28 28 28 28 31 31 32 28 27 28 31 31 36 32 29 25 22 24 26 25 26 27 26 23 22 19 17
45 45 45 45 46 46 42 37 34 35 31 33 33 28 28 26 27 28 30 28 26 26 26 30 30 30 28 28 37 34 29 26 29 26 25 29 28 22 24 23 24 21 21 24
45 44 45 45 46 46 40 33 33 36 35 36 34 33 29 26 27 27 28 28 28 30 30 28 27 24 25 25 29 30 32 28 30 25 24 28 27 24 24 25 27 28 26 26
44 44 45 45 45 46 40 41 41 37 33 33 32 33 32 30 30 31 29 28 28 28 29 32 31 30 31 29 30 31 31 30 29 25 24 26 23 26 26 27 28 28 26 27
44 44 45 45 45 44 43 42 42 35 29 32 31 33 35 32 32 31 31 30 28 30 36 36 33 31 32 32 32 33 32 32 31 27 25 21 23 31 30 26 28 28 28 28
44 44 45 44 44 45 44 44 42 38 29 32 31 33 34 32 33 33 30 30 31 32 34 33 30 31 30 30 33 33 33 29 28 25 24 25 29 28 27 25 25 28 27 26
45 44 45 44 44 44 44 43 45 41 35 30 32 36 35 34 33 33 31 32 33 33 32 32 27 24 27 25 25 28 30 30 26 27 21 20 26 30 30 26 22 29 27 24
45 45 45 44 44 45 45 43 45 42 36 37 35 35 34 33 32 32 30 30 31 32 32 29 27 26 27 25 24 24 27 27 25 24 24 24 29 30 27 19 21 29 27 26
45 44 44 44 44 45 45 42 45 43 37 38 40 37 35 34 33 29 32 31 32 32 29 27 26 25 26 26 28 25 26 25 25 26 23 21 30 27 24 25 28 28 27 26
44 44 44 44 45 45 45 40 44 46 42 39 42 41 41 37 36 34 33 31 31 33 31 29 29 29 28 26 25 30 23 26 25 26 25 30 30 29 29 29 27 27 26 26
44 44 44 45 44 45 44 42 42 44 40 39 39 40 41 40 39 36 34 36 34 34 34 33 33 31 29 26 26 28 30 31 27 27 28 28 29 29 28 28 27 27 27 26
43 43 44 44 44 43 44 42 45 44 40 33 36 40 39 39 38 37 36 37 40 40 39 34 33 31 35 30 28 28 30 29 27 27 27 27 27 28 27 26 26 26 25 24
43 44 44 44 42 44 46 45 45 44 39 33 35 39 39 38 37 36 36 35 34 33 33 29 30 33 35 33 30 28 30 28 25 22 28 28 27 28 26 24 23 24 22 21
44 43 43 43 42 43 44 37 43 41 40 34 31 38 38 37 36 35 34 34 35 35 32 32 31 35 33 30 26 31 33 31 30 28 30 28 28 27 25 23 22 22 21 20
42 42 42 42 44 43 40 37 40 42 40 32 28 32 35 35 34 34 33 34 33 32 31 28 28 27 30 30 27 31 31 31 31 30 28 26 26 24 26 24 24 23 21 20
42 42 42 43 43 42 38 37 41 42 37 34 28 28 30 33 31 29 34 31 31 31 29 29 25 27 28 24 30 31 30 30 29 29 29 28 28 26 24 24 21 20 19 19
42 42 41 41 40 38 39 42 42 42 34 29 27 26 24 33 31 31 31 29 24 29 26 26 26 26 22 27 31 30 29 28 29 28 28 26 25 23 22 21 21 19 19 18
40 36 32 31 36 42 40 33 31 31 34 33 28 31 29 31 28 28 26 27 24 21 26 27 24 23 29 31 32 30 30 30 28 27 26 25 24 22 21 21 21 20 18 17
34 31 31 36 40 35 31 25 24 27 27 30 30 30 29 32 26 24 25 22 24 19 24 21 21 23 28 31 32 31 30 30 29 28 28 27 25 23 22 22 22 21 20 18
35 33 36 36 33 29 21 19 25 26 26 29 29 30 31 31 29 26 25 22 23 21 24 18 17 24 29 30 30 30 30 29 29 28 28 28 27 25 24 23 22 21 20 17
35 31 26 28 25 17 12 11 22 21 28 30 28 27 29 29 29 24 21 16 18 24 13 15 22 26 29 30 30 29 30 29 28 28 27 27 26 24 24 21 17 17 15 11
29 23 17 18 20 22 26 27 26 28 28 29 28 27 28 26 26 23 16 26 24 12 9 16 22 27 28 29 29 29 28 27 27 25 24 22 21 16 13 17 15 14 11 4
25 25 18 18 27 30 30 29 30 31 28 28 27 27 28 24 22 24 23 21 15 17 15 20 24 28 28 28 29 28 26 24 22 21 22 19 16 16 10 6 11 12 8 5
28 26 22 26 26 25 24 28 31 33 31 26 27 24 21 21 22 22 16 20 15 18 29 30 25 26 26 26 26 24 22 22 20 19 18 16 15 15 13 5 7 4 8 6
26 26 28 25 28 28 29 30 31 33 31 22 25 19 21 25 21 22 24 21 28 29 29 29 26 26 24 24 23 21 20 18 17 14 14 12 12 12 13 11 6 6 5 0

GFSNW_sfc_dewp_150.txt.gz
Dewpoint
47 46 45 46 45 46 45 40 31 39 46 35 35 28 27 31 25 26 26 28 28 26 27 27 21 20 20 23 22 18 20 23 16 15 18 22 18 24 28 24 23 24 23 18
47 46 45 47 46 47 44 36 37 44 42 28 27 28 27 28 27 25 25 24 28 27 26 25 28 26 27 26 24 23 25 28 18 18 19 21 22 23 27 27 27 24 20 20
47 46 46 47 47 48 44 38 30 37 39 35 26 24 24 24 29 28 27 27 26 26 24 25 24 27 27 28 26 38 33 28 25 20 22 27 23 25 28 28 24 24 22 21
46 46 46 46 46 48 44 38 33 33 29 32 32 27 26 25 25 27 29 27 27 26 23 25 29 29 28 27 36 33 31 27 28 26 25 28 30 27 26 27 25 21 23 22
46 46 46 46 47 47 42 33 34 36 34 33 32 31 27 25 24 26 25 26 25 25 25 24 22 29 28 28 28 30 33 28 30 25 27 27 29 28 26 25 26 27 26 26
46 46 46 46 47 45 40 41 41 36 34 34 32 30 30 29 29 30 27 28 29 29 28 28 32 32 31 31 29 29 31 30 28 25 26 31 27 28 29 26 29 28 25 27
46 46 46 46 47 46 42 42 41 35 30 32 31 32 32 32 32 30 32 32 31 32 31 34 34 34 33 32 33 34 32 32 32 28 27 20 23 31 30 29 29 29 28 29
46 45 45 46 46 46 43 42 41 36 31 31 30 31 31 32 34 34 32 33 33 33 33 30 30 31 30 30 33 33 34 33 29 26 26 25 28 28 28 26 26 28 28 26
45 45 45 46 46 45 43 42 44 41 34 31 31 30 32 32 33 34 36 36 34 36 35 32 27 23 26 27 28 34 35 35 30 28 23 21 26 31 29 27 24 29 27 24
45 45 45 45 45 44 44 42 43 40 34 37 35 34 34 37 36 34 34 34 31 35 32 30 27 26 29 26 26 28 30 30 27 26 26 25 28 30 28 23 23 28 26 25
45 45 45 45 45 45 44 42 45 40 37 36 38 38 35 37 35 31 33 32 31 30 31 29 28 25 28 29 29 28 27 27 26 26 24 21 30 26 24 27 28 28 27 26
45 45 45 45 44 44 45 41 44 45 40 39 42 40 41 38 37 36 33 32 32 34 30 29 29 27 28 28 27 29 25 27 26 27 26 30 30 28 29 29 27 27 26 26
45 45 44 44 44 45 45 42 43 43 40 38 38 39 41 42 41 39 36 36 35 34 35 34 33 29 29 26 26 28 29 30 27 26 28 29 29 28 28 28 27 26 26 24
44 44 44 44 44 45 45 42 43 42 40 33 37 41 40 41 42 41 40 40 41 40 39 35 32 30 34 28 27 28 29 29 27 26 28 28 27 27 27 27 27 26 25 24
44 44 43 44 44 44 44 44 44 44 40 33 35 40 40 40 42 42 42 42 40 38 35 33 31 32 33 31 30 27 30 27 26 25 29 28 28 28 27 26 26 25 25 24
43 43 44 44 42 43 42 37 44 45 44 36 31 39 39 39 39 38 37 38 36 35 32 32 31 34 33 27 27 29 33 31 29 27 30 28 28 27 25 25 24 24 23 23
43 43 44 44 43 42 38 36 41 44 43 35 31 33 38 37 35 35 34 34 33 33 31 31 29 30 35 32 28 31 32 32 30 29 27 26 26 24 24 24 24 24 20 20
43 43 43 44 45 44 40 41 43 43 38 33 29 31 34 33 31 29 33 30 31 31 29 28 26 28 29 25 29 31 30 29 28 28 28 27 26 25 24 22 21 20 19 18
42 42 42 42 40 39 40 43 43 43 36 31 27 27 27 33 31 31 30 29 26 29 27 27 26 26 23 26 30 29 29 28 28 28 27 26 24 24 22 21 20 19 18 18
41 38 35 32 37 43 41 34 33 34 34 33 29 31 29 31 29 28 27 28 26 23 25 27 24 24 26 30 31 30 29 29 27 26 25 24 23 22 22 20 20 19 18 18
34 32 32 38 42 35 30 26 28 29 28 30 31 30 30 32 27 25 26 23 25 19 24 22 21 22 26 30 31 30 30 29 28 27 27 26 24 23 22 21 21 20 19 18
35 36 39 36 32 27 21 21 26 27 27 29 28 29 31 30 29 27 26 22 22 20 24 20 18 23 27 29 29 29 29 29 28 28 27 26 24 24 23 22 21 20 19 17
34 32 29 29 25 19 15 13 22 27 30 28 28 26 28 27 28 22 22 15 17 24 13 16 20 23 28 29 29 29 29 29 28 27 27 27 25 24 24 21 17 17 15 12
28 25 21 22 18 22 24 27 28 30 28 27 27 26 27 27 26 22 15 27 24 11 8 15 20 25 27 28 28 28 27 25 26 25 24 23 22 18 15 19 17 15 13 7
25 24 18 20 27 29 29 29 31 32 27 26 27 27 27 24 24 24 24 23 17 17 15 23 29 27 27 27 28 27 25 23 22 22 22 20 18 18 13 9 13 13 9 7
28 27 23 26 25 26 29 29 31 33 31 27 27 24 21 20 23 19 15 19 14 16 28 29 28 26 23 24 24 22 22 24 22 21 20 19 18 17 16 8 9 5 9 8
26 26 28 27 28 27 29 31 32 33 31 23 26 20 22 24 20 21 25 20 27 28 28 28 26 25 24 24 22 20 20 21 20 16 17 14 13 13 14 13 8 8 7 3

GFSNW_sfc_dewp_153.txt.gz
Dewpoint
48 48 47 47 46 46 44 39 29 39 46 36 35 29 28 31 25 26 24 26 26 26 26 25 20 20 21 24 22 18 21 23 18 17 18 19 19 20 22 22 23 24 24 27
47 47 46 46 45 46 43 35 35 43 43 28 28 27 26 28 27 25 24 24 27 28 25 18 28 27 28 29 25 24 24 24 21 20 20 20 19 19 24 28 27 26 26 28
47 47 47 46 46 47 44 36 31 37 40 36 26 25 24 25 29 28 27 26 27 24 23 26 24 23 25 30 28 34 34 27 25 22 23 26 23 20 24 26 29 29 29 30
47 46 46 47 46 47 44 39 31 33 29 31 33 27 25 22 24 27 29 27 26 24 22 23 24 25 29 30 32 34 31 23 26 24 23 25 25 24 24 29 30 28 29 28
47 46 46 47 46 47 42 34 35 36 33 30 29 28 24 25 24 26 26 26 25 27 25 25 22 25 27 26 29 30 33 26 28 26 26 28 31 27 26 28 31 33 33 27
47 46 46 46 47 46 41 41 41 36 32 32 29 27 27 26 28 29 27 26 27 27 30 29 30 30 29 28 28 30 31 30 30 25 27 32 28 30 31 29 29 31 27 30
47 46 46 46 47 46 44 42 41 36 30 32 30 30 30 29 29 29 30 31 30 32 34 33 33 32 33 33 32 31 30 30 33 27 29 22 28 30 31 32 31 33 30 31
47 46 46 46 47 47 44 43 41 37 32 32 30 32 32 33 34 34 35 36 34 36 35 33 29 28 28 27 32 32 32 31 30 26 24 26 26 29 29 28 28 31 30 29
46 46 46 46 47 47 44 44 44 39 35 31 30 31 31 30 31 32 33 38 39 38 36 33 25 21 25 27 30 33 34 33 29 29 23 19 27 30 29 28 26 30 29 26
46 46 46 45 46 46 44 42 44 40 35 35 36 34 33 36 36 35 35 36 35 38 32 30 26 23 29 26 26 29 31 32 28 27 26 27 28 30 29 23 30 31 28 26
46 46 45 46 46 46 44 41 44 39 36 35 36 38 34 34 37 34 34 35 33 35 31 31 30 27 29 29 28 28 28 28 27 28 24 20 31 27 26 33 30 29 28 26
45 45 45 45 45 45 44 40 45 44 38 38 42 41 40 39 39 39 37 34 32 34 32 31 30 27 30 29 26 31 29 29 27 26 27 31 31 30 29 31 29 28 27 26
45 45 45 45 45 45 43 42 43 43 38 37 36 35 38 40 42 42 37 37 36 36 36 35 34 30 31 27 27 29 30 30 29 28 29 29 29 29 29 29 29 28 27 25
45 45 45 45 45 45 44 42 44 42 38 32 34 41 39 43 44 44 43 41 42 41 40 36 35 32 34 29 27 29 29 30 30 29 28 28 29 29 29 28 28 26 26 25
45 45 45 45 44 44 45 44 44 43 38 33 35 40 41 42 42 42 42 42 40 38 36 35 34 33 35 33 30 29 30 31 31 33 32 32 31 30 29 28 26 26 24 24
44 44 44 44 44 45 42 36 43 44 43 36 32 39 39 40 43 42 42 42 40 38 35 35 35 35 35 32 29 30 31 31 31 33 31 30 31 29 28 27 27 26 25 24
44 43 43 44 44 43 38 36 42 44 44 35 32 34 38 39 39 37 36 37 36 35 34 34 31 34 36 33 31 32 33 32 31 30 29 27 27 27 27 27 26 27 24 24
43 43 43 44 44 41 38 41 44 45 40 37 31 31 35 36 34 34 34 32 33 32 31 30 28 31 33 31 30 32 30 29 29 28 28 29 27 26 26 25 23 23 22 22
44 43 44 44 41 37 40 44 45 44 40 33 31 30 29 34 32 32 31 30 30 30 30 28 27 28 27 30 28 31 29 29 28 27 26 25 25 24 24 23 22 21 21 21
41 39 35 32 38 43 42 38 36 36 37 34 30 32 31 33 31 29 29 30 28 27 28 28 28 29 29 28 31 32 30 29 27 25 25 24 24 23 22 22 22 21 20 19
36 33 32 39 43 38 33 29 30 32 31 31 32 32 31 32 29 28 28 27 27 23 26 26 24 24 27 30 31 31 30 29 28 28 27 26 26 23 22 22 22 21 20 19
35 38 39 37 32 29 25 24 27 29 28 31 31 31 31 32 32 30 28 26 25 20 26 25 22 24 26 30 30 30 30 29 28 28 27 27 25 24 23 22 21 21 20 20
36 34 32 30 27 21 19 20 25 28 31 31 31 29 30 29 28 26 26 22 23 25 23 21 23 25 29 30 30 30 29 29 29 28 27 26 26 26 25 24 24 22 20 19
29 27 23 24 21 24 26 27 28 31 31 29 29 29 29 28 27 23 22 27 25 20 19 18 26 29 28 29 30 29 29 28 28 27 26 24 24 23 23 23 22 20 18 16
26 25 21 22 28 29 29 30 31 33 30 29 29 29 28 26 26 25 26 23 20 20 21 26 29 29 28 29 29 29 27 24 25 25 25 23 22 23 22 20 22 22 18 15
28 27 24 26 25 28 29 31 32 33 31 29 29 25 24 24 24 20 20 20 18 23 28 28 28 28 26 27 28 26 25 26 26 26 25 24 22 22 23 17 19 18 18 16
26 26 30 28 28 28 30 31 32 33 31 28 27 23 24 26 23 23 27 24 26 28 28 28 27 26 26 26 26 26 26 25 24 23 23 22 20 19 18 19 18 16 17 16

GFSNW_sfc_dewp_159.txt.gz
Dewpoint
50 48 48 48 48 49 48 42 36 44 46 40 37 32 19 28 16 21 16 16 9 4 7 10 7 6 8 14 15 14 15 18 16 12 12 12 13 15 15 20 17 22 25 30
50 49 48 48 48 48 43 38 37 43 45 33 30 26 22 24 18 16 11 12 11 10 11 11 13 13 14 16 18 16 17 16 17 14 13 12 12 13 14 14 18 19 25 31
49 49 47 47 47 47 41 36 33 40 41 33 25 24 23 23 23 17 16 17 17 18 17 16 14 14 14 19 19 33 25 18 16 18 15 13 14 20 19 17 24 25 28 33
49 48 47 47 47 46 40 37 35 33 34 34 28 24 22 21 23 23 22 20 20 18 16 15 16 18 18 21 28 26 24 19 18 14 11 11 12 11 10 11 15 19 25 23
49 48 47 46 47 46 37 37 36 31 26 30 29 27 22 20 19 22 21 21 20 20 18 19 19 22 25 25 25 26 27 25 23 20 18 16 14 11 10 12 14 16 23 21
48 48 46 46 46 45 37 35 33 30 31 30 31 28 22 21 21 23 21 23 23 23 23 26 29 31 31 30 29 27 25 27 27 25 21 21 24 27 21 18 19 21 23 26
48 48 46 45 46 44 36 37 34 29 30 28 28 25 25 23 24 25 25 25 25 25 32 36 32 30 30 31 30 29 28 27 25 25 23 19 27 25 24 34 29 35 30 31
48 47 46 45 45 44 39 40 35 29 30 24 25 25 25 25 26 27 26 25 27 31 37 36 30 28 27 28 28 28 29 28 25 25 21 18 16 18 24 26 25 25 26 27
47 46 45 45 45 45 43 41 42 37 30 26 23 25 26 26 28 30 32 33 32 35 37 34 26 22 20 18 19 26 26 30 26 23 20 17 19 25 26 26 26 28 26 28
47 46 45 45 45 45 43 44 46 42 38 34 30 27 27 28 27 27 30 31 34 37 34 31 26 24 20 19 23 24 25 25 26 26 24 23 20 26 29 23 28 32 30 32
47 46 45 45 46 45 44 42 47 41 38 33 33 32 31 29 30 30 36 37 37 35 32 30 28 26 25 24 21 26 23 25 26 27 26 23 26 27 25 35 34 32 32 33
46 45 45 45 46 46 44 43 44 44 39 32 37 37 35 34 34 35 35 34 37 37 34 31 29 29 30 26 22 24 28 25 26 28 29 33 30 29 34 32 31 33 32 32
45 45 45 46 46 46 43 44 45 45 38 35 34 32 35 37 37 37 36 39 37 37 40 40 37 31 30 27 25 26 29 28 30 28 28 28 30 32 32 30 31 31 32 32
46 45 46 46 46 46 44 43 46 42 38 34 30 35 37 37 36 37 38 38 40 42 42 38 36 32 33 30 27 28 28 34 33 31 30 30 31 31 33 31 30 30 31 30
46 46 46 46 46 46 46 47 46 44 36 34 35 37 36 39 39 36 37 40 40 41 37 36 35 33 35 33 32 31 29 31 34 37 35 32 31 35 34 32 30 30 30 29
46 46 46 46 46 46 44 38 44 45 42 37 31 35 37 38 38 40 39 40 41 41 36 36 37 40 37 37 31 28 29 29 30 33 35 36 37 34 34 32 31 30 30 28
45 45 46 46 45 46 40 38 43 44 44 36 32 31 38 40 39 41 41 42 39 37 35 34 37 37 38 35 32 29 32 30 32 34 34 34 33 34 33 32 30 32 28 28
45 45 45 44 44 43 40 42 44 45 40 38 32 30 36 39 36 35 39 37 38 36 36 38 37 38 37 34 31 33 32 32 33 33 33 33 34 32 32 31 29 28 27 27
45 44 44 43 42 38 40 43 44 46 39 34 34 30 31 38 36 37 37 38 34 39 36 35 35 34 34 32 29 29 31 32 32 32 30 30 31 31 31 30 29 28 27 27
43 41 37 32 38 43 43 41 37 37 37 37 34 34 35 37 35 35 36 37 36 32 33 34 32 30 30 30 30 31 32 32 32 31 30 30 30 30 30 29 29 28 26 26
39 36 35 40 43 39 36 33 32 34 32 35 32 33 34 38 34 35 35 34 32 26 29 28 27 26 30 31 31 33 33 32 32 30 30 30 30 31 31 30 29 28 27 26
39 39 39 39 35 35 31 30 33 33 28 34 34 35 37 36 38 36 33 29 29 19 30 30 23 30 29 31 32 32 32 32 31 30 30 30 29 31 31 30 29 28 28 30
40 37 34 34 32 28 27 26 28 31 34 36 35 34 36 36 36 35 32 31 27 29 30 24 28 29 30 31 32 32 32 32 31 31 31 30 30 33 33 34 35 35 32 32
35 33 28 29 28 29 28 33 34 35 36 36 37 35 35 35 33 33 31 29 29 26 25 22 31 30 30 31 32 32 32 34 33 35 35 34 34 33 33 33 33 31 30 30
32 31 27 27 32 32 34 35 35 35 38 38 35 31 31 31 31 30 27 27 23 22 25 31 32 30 30 30 33 33 34 33 34 34 33 32 32 33 32 32 33 33 31 29
31 27 30 32 32 33 34 34 34 37 37 36 35 28 31 29 29 24 25 19 20 29 29 31 30 30 30 31 32 34 34 34 34 34 34 33 32 33 33 32 32 32 32 29
26 31 34 33 34 33 34 35 36 38 37 34 27 27 24 28 24 22 26 29 29 29 30 29 29 29 30 32 33 32 33 34 34 34 34 33 33 32 29 30 32 30 30 31

GFSNW_sfc_dewp_162.txt.gz
Dewpoint
48 51 50 48 48 49 48 42 37 46 49 39 36 34 25 27 15 17 19 17 11 6 3 2 2 2 3 10 11 11 11 15 13 9 11 12 11 12 12 16 15 19 23 26
46 50 50 49 48 48 46 39 39 46 47 33 32 27 26 22 19 15 11 11 10 8 8 8 9 11 12 13 14 18 19 15 16 11 11 12 12 12 12 16 18 18 21 23
44 47 49 49 48 48 45 41 33 40 42 34 26 25 23 21 22 19 15 11 12 13 10 13 10 11 12 18 16 33 25 19 17 19 16 13 12 9 8 12 24 25 25 28
45 45 49 48 48 48 46 39 35 33 33 36 30 25 21 19 21 22 19 16 17 14 15 13 13 13 13 17 27 23 22 18 17 17 16 16 15 13 11 10 12 13 17 15
44 44 49 48 48 47 43 38 36 29 24 30 30 30 24 20 20 22 20 19 17 17 16 15 13 17 19 20 25 24 27 25 23 21 20 19 18 16 15 13 10 10 12 13
44 44 48 48 48 46 42 38 33 29 29 31 32 31 24 19 23 22 20 20 19 19 19 28 30 30 30 30 28 27 26 26 25 23 20 23 25 27 21 19 19 20 18 26
43 44 45 48 48 46 40 37 33 31 28 24 28 23 25 20 20 21 20 22 22 22 34 33 31 29 27 27 28 28 26 26 26 25 25 20 24 20 21 26 26 30 26 29
43 44 43 48 47 46 44 37 37 34 31 24 24 25 24 23 24 24 22 24 25 30 35 31 26 26 26 26 26 27 28 28 28 25 24 21 19 18 19 28 29 34 24 25
42 44 44 47 47 46 46 43 43 42 32 27 23 26 25 25 26 25 27 28 31 31 37 33 24 20 19 19 23 26 26 30 29 25 21 14 20 28 35 29 27 29 28 28
42 44 45 47 47 46 45 47 48 43 38 27 28 26 27 27 26 25 27 30 33 35 35 30 25 24 22 21 21 23 27 29 27 26 24 20 18 21 31 26 29 32 31 31
43 44 45 47 47 46 45 47 46 40 38 33 33 31 29 29 27 27 30 35 37 37 33 31 27 26 25 23 23 24 27 26 26 26 23 22 24 25 32 36 34 33 33 36
44 44 45 47 46 45 45 44 44 43 40 34 38 37 37 35 36 37 38 36 37 36 35 32 31 29 31 26 25 26 28 26 26 25 29 37 38 37 36 33 32 33 33 34
43 46 46 47 45 45 44 44 46 43 38 34 33 32 35 37 37 41 35 35 36 39 40 38 37 31 32 28 27 28 31 32 32 33 29 28 31 34 36 31 32 32 33 33
46 46 46 46 45 45 45 44 46 42 37 34 30 32 32 34 35 34 38 38 39 40 40 37 36 32 33 31 31 32 33 36 33 32 32 31 32 33 33 32 31 30 32 32
46 46 46 46 46 46 45 47 47 47 36 34 33 35 35 37 37 35 36 38 38 40 37 36 35 32 34 33 33 32 30 31 33 34 37 36 35 35 33 34 31 30 31 30
46 45 45 46 46 45 44 39 43 46 43 36 29 33 33 35 37 37 37 38 39 40 37 35 38 36 35 33 29 28 29 33 37 35 40 40 39 36 33 33 32 31 31 30
45 45 45 45 44 44 39 38 42 44 42 37 31 27 33 37 37 40 41 41 41 40 37 35 36 37 38 35 31 30 31 31 37 37 36 35 35 36 34 33 32 33 30 29
46 45 45 45 45 43 40 43 44 45 40 38 30 28 35 39 37 36 41 38 38 37 36 36 36 37 37 33 34 33 32 34 33 33 33 33 34 33 33 32 31 30 29 29
45 45 45 44 42 38 41 45 45 46 40 34 31 28 29 39 36 37 36 38 33 37 34 36 38 36 33 34 31 29 31 32 33 32 32 30 31 31 32 31 30 29 29 30
43 41 37 32 39 44 43 41 36 37 37 37 32 33 32 37 36 35 35 35 33 32 35 38 36 32 31 32 31 30 32 32 31 31 31 31 31 32 32 30 31 29 29 29
40 37 34 40 44 41 37 33 32 33 31 33 32 30 32 38 34 33 36 34 35 32 35 32 29 28 32 30 31 32 33 33 32 32 31 31 31 32 32 32 32 32 30 30
39 39 40 39 36 35 31 31 30 31 25 33 32 34 37 37 38 34 35 34 33 26 32 31 24 30 30 30 31 32 33 33 32 31 31 33 31 33 33 33 33 32 31 31
40 38 34 34 33 29 26 24 25 29 35 35 35 33 36 36 37 35 35 30 26 29 32 23 30 30 30 31 32 32 33 34 33 33 34 36 35 36 35 34 33 32 31 31
36 33 28 29 28 27 28 33 32 36 37 37 36 35 35 35 34 33 30 32 29 25 23 23 31 30 30 32 34 33 33 33 34 34 33 32 32 32 32 32 31 30 29 29
34 33 28 28 32 32 35 35 35 37 39 36 35 36 35 33 29 33 27 26 22 22 25 30 30 30 30 31 33 33 33 32 32 33 31 31 30 31 30 31 32 30 28 29
33 29 30 32 32 33 33 34 34 38 37 38 37 31 31 28 29 24 24 19 20 28 29 31 29 29 30 31 33 33 32 33 33 33 33 32 31 31 31 31 31 29 29 28
28 32 35 34 34 32 33 34 35 39 37 33 31 28 24 29 24 22 28 27 28 29 30 30 29 29 30 32 32 32 33 33 32 32 32 31 32 31 30 29 30 30 30 29

GFSNW_sfc_dewp_168.txt.gz
Dewpoint
46 45 46 49 51 50 47 42 32 41 47 35 34 30 28 28 21 23 22 22 22 22 22 18 14 19 18 17 20 15 23 19 14 11 16 16 14 14 16 17 14 21 19 17
44 45 45 45 49 49 45 37 35 47 43 29 29 29 28 26 25 24 19 20 19 21 16 15 17 19 25 22 22 22 21 19 18 12 14 19 15 14 15 19 20 16 14 17
43 44 44 44 46 49 44 36 32 37 42 35 30 28 26 28 27 22 24 19 22 21 16 17 18 20 25 28 25 35 28 20 18 14 18 21 17 16 17 17 18 17 18 17
42 44 44 45 45 49 43 37 33 37 32 33 34 33 30 24 26 26 23 20 21 21 19 19 18 18 19 25 33 25 20 16 20 20 19 19 18 16 17 20 20 18 19 20
42 43 44 44 45 48 42 34 34 38 35 33 35 34 32 28 26 25 22 22 22 23 22 20 19 24 25 22 30 25 26 19 21 18 22 23 23 23 23 22 21 21 22 19
41 41 44 44 46 46 40 41 42 39 32 32 31 30 31 30 29 31 32 29 25 26 27 28 29 31 30 30 29 29 28 26 25 22 24 24 20 24 23 23 22 23 22 24
41 42 43 44 45 45 42 42 42 35 30 31 29 29 30 29 30 29 32 34 31 30 34 33 30 29 29 30 29 30 28 26 26 23 22 16 21 27 26 26 27 28 28 31
42 42 43 44 45 45 44 44 41 37 31 32 29 29 29 29 31 29 32 35 34 36 33 27 24 25 25 25 27 28 29 28 23 20 19 17 19 20 21 24 22 29 31 32
42 42 43 44 43 45 45 44 45 40 34 31 31 30 30 28 26 26 28 36 38 37 32 28 22 20 23 22 26 28 24 28 24 25 21 18 22 26 28 30 23 34 33 31
42 42 43 44 43 44 43 43 45 41 35 37 37 32 28 29 28 27 29 29 32 35 26 25 25 23 23 21 20 24 25 25 24 23 22 25 27 27 33 22 22 36 33 32
42 42 43 43 42 43 43 42 45 41 37 38 39 39 33 30 30 28 30 32 32 30 26 28 26 25 26 23 22 24 26 25 26 26 25 21 29 32 28 29 37 37 36 34
42 42 43 42 41 41 44 40 45 45 40 38 39 40 39 38 37 33 35 31 34 34 30 29 29 27 29 28 25 31 28 30 28 28 26 31 36 35 37 40 36 35 34 34
41 41 42 41 41 41 42 43 43 42 38 37 35 33 38 39 39 39 33 36 38 37 38 34 34 31 34 26 29 32 34 37 33 32 32 34 35 37 37 40 40 37 34 33
41 42 42 40 40 40 43 42 45 42 38 31 30 35 34 36 37 38 38 37 39 39 38 33 34 32 35 30 32 30 32 35 34 34 35 35 35 36 38 39 40 32 34 32
42 42 40 40 41 42 44 44 45 45 38 27 30 33 32 34 35 34 35 36 35 34 32 33 31 33 31 31 32 30 32 30 28 26 33 34 35 36 39 37 37 33 33 31
41 41 39 40 42 43 43 36 44 46 44 31 22 31 32 33 36 34 34 35 34 34 33 32 32 35 30 28 26 29 29 32 34 32 37 39 39 40 40 38 36 33 33 32
41 41 40 40 43 43 35 35 40 44 43 29 25 26 31 38 36 36 36 37 35 33 31 30 32 33 33 32 27 30 31 30 31 33 37 37 37 37 37 40 38 36 33 31
42 42 43 42 43 43 41 43 44 42 37 34 25 25 29 36 32 35 38 37 38 37 36 36 34 34 33 29 28 30 31 34 35 35 39 37 35 33 33 33 33 31 30 30
41 43 43 43 41 38 40 44 43 41 34 27 26 22 21 35 35 36 37 38 31 37 33 33 34 32 29 30 31 34 34 33 32 33 33 32 31 31 32 31 31 30 29 29
44 41 37 32 40 45 42 38 36 35 36 34 30 29 24 35 34 33 33 34 31 28 31 36 32 29 32 33 35 33 33 33 34 32 32 32 31 31 31 30 30 30 29 29
37 34 33 41 43 38 35 29 29 31 29 32 31 29 31 36 30 31 33 31 32 28 29 30 29 29 32 33 33 34 34 34 34 34 34 33 33 33 32 32 32 32 31 28
36 38 40 39 35 32 27 25 26 27 24 28 29 29 29 35 37 32 32 29 31 27 33 30 26 30 32 32 33 34 34 34 33 32 32 32 32 33 34 32 31 31 29 27
36 33 31 29 29 22 21 19 25 25 26 29 33 31 33 35 36 32 31 29 26 33 29 26 27 30 31 32 33 33 31 31 31 31 30 30 30 30 30 29 28 27 25 22
28 25 24 22 21 22 22 23 23 28 33 34 35 32 33 33 31 31 25 27 31 20 15 22 27 29 29 31 34 32 31 30 30 30 29 27 28 28 28 26 23 28 27 23
27 25 13 19 22 28 31 31 26 31 34 34 32 32 33 31 29 30 28 26 21 22 21 26 29 29 30 31 31 31 30 29 29 29 28 26 24 27 27 26 25 25 23 23
28 28 21 25 19 16 29 29 26 35 33 33 32 31 29 27 29 28 24 22 19 24 26 28 29 29 29 30 30 30 30 30 30 29 29 29 27 25 27 25 23 22 22 21
28 22 23 24 28 30 32 31 32 36 33 31 32 28 24 30 27 26 26 18 25 27 28 29 29 29 29 30 30 30 30 30 29 28 28 27 25 24 26 25 25 24 22 19

GFSNW_sfc_dewp_171.txt.gz
Dewpoint
45 44 44 48 51 50 46 42 33 39 44 36 35 29 29 31 23 23 21 23 21 20 21 17 16 17 22 19 18 17 21 18 12 10 15 17 15 14 16 17 13 20 19 17
43 44 43 44 48 49 44 38 37 46 42 28 28 30 30 29 25 24 21 19 21 21 16 16 19 16 24 26 20 20 19 19 18 11 11 19 16 15 18 19 20 15 13 16
42 42 43 42 44 49 44 37 31 37 41 34 28 27 27 27 29 25 23 22 23 18 17 17 16 18 27 24 23 35 28 21 16 15 16 21 18 17 16 17 18 17 18 20
40 42 43 43 45 48 43 38 33 34 27 33 35 30 29 25 24 27 25 16 19 19 19 19 17 18 20 26 30 27 21 14 20 21 20 21 18 15 16 18 19 18 17 17
40 41 44 44 45 46 41 33 34 37 34 35 34 34 34 28 29 27 24 23 20 21 20 18 17 23 24 21 29 25 24 15 19 16 19 22 21 22 23 23 24 23 23 22
39 41 43 45 45 46 41 42 41 38 31 30 32 30 31 29 31 32 29 29 30 25 26 26 26 26 29 28 29 29 28 24 25 15 23 24 21 23 23 22 23 24 21 23
40 41 43 44 45 44 42 41 39 36 26 31 30 31 31 31 31 30 30 33 31 31 35 32 31 29 29 30 29 31 28 26 27 24 26 18 23 24 26 27 25 27 26 28
40 41 43 43 44 44 40 41 40 37 29 32 31 31 30 30 32 31 30 33 35 35 36 32 28 25 25 25 28 29 30 27 24 21 21 20 18 14 20 23 22 26 28 32
42 42 42 44 44 43 40 40 44 39 34 31 32 29 31 28 28 29 30 33 38 36 33 30 25 20 21 20 24 28 26 29 24 24 19 14 22 25 29 27 22 30 33 30
42 43 42 43 44 44 41 37 44 41 33 36 37 35 32 31 29 26 27 30 33 36 30 25 25 22 24 20 19 20 26 26 23 22 19 22 27 27 31 24 21 33 35 32
42 42 42 43 43 43 41 39 42 40 35 37 39 38 36 33 30 26 29 30 30 30 28 28 27 25 25 22 21 22 23 24 24 24 23 19 29 29 25 28 33 36 35 34
41 41 42 43 42 42 42 37 42 44 38 37 41 40 40 38 35 32 33 33 31 32 29 30 29 26 28 26 22 30 24 29 29 27 25 31 33 33 35 37 36 35 35 35
41 41 41 42 42 41 41 37 41 39 37 36 37 36 37 41 40 39 33 35 37 37 37 34 33 29 32 26 27 31 34 38 33 33 35 33 34 36 37 37 38 38 38 35
40 41 42 42 42 41 41 38 39 40 37 31 32 37 36 39 40 41 38 36 40 39 37 32 32 30 35 30 31 32 32 33 33 34 34 33 35 36 35 36 38 39 36 34
40 40 41 41 41 40 40 39 40 43 37 31 31 33 34 35 36 37 37 37 35 35 31 27 31 32 31 31 31 29 31 31 29 26 32 33 33 35 37 37 37 37 37 32
41 40 41 41 41 40 40 35 41 43 43 33 27 31 33 33 35 33 34 35 33 33 32 32 30 33 30 27 25 27 30 32 33 32 35 35 34 36 39 40 39 36 34 33
40 40 41 41 41 40 36 32 39 44 43 32 26 25 30 36 34 33 33 34 33 32 31 30 30 31 31 26 24 26 30 30 31 33 33 33 37 36 37 37 39 38 34 33
40 41 41 41 40 41 39 40 44 44 39 34 26 24 29 34 30 31 38 36 37 36 31 34 31 31 30 25 26 26 25 27 31 34 36 38 37 33 32 33 33 32 32 31
40 40 40 40 39 35 37 45 44 43 36 27 24 23 22 33 34 36 36 37 31 35 33 33 34 31 28 28 29 29 32 34 33 33 33 32 31 31 32 31 31 31 31 30
40 39 35 30 36 44 43 39 35 35 36 31 24 27 23 32 33 33 32 34 30 26 30 35 32 27 29 31 32 34 33 32 33 31 30 32 31 31 31 31 31 31 30 30
38 33 32 40 42 37 33 30 28 30 26 29 29 27 26 34 28 29 33 30 31 26 27 28 26 27 30 33 33 34 34 33 33 33 33 32 32 32 33 32 32 32 32 29
37 38 40 38 35 31 26 25 27 25 23 26 27 28 28 33 35 29 31 29 30 25 33 29 26 30 33 33 33 32 33 32 32 31 30 30 30 31 32 33 31 31 30 27
36 33 30 29 28 21 21 18 22 23 25 28 30 30 31 35 35 31 30 27 27 33 28 26 27 30 31 33 35 33 31 30 30 30 29 28 28 29 28 28 29 27 24 23
28 25 23 17 21 20 21 22 22 25 32 30 31 31 32 31 30 30 27 27 30 24 20 23 28 29 30 31 33 31 30 29 29 29 28 26 27 27 24 24 26 28 26 23
25 22 13 22 21 26 27 30 28 28 33 34 32 32 32 31 29 30 28 25 21 21 19 26 28 29 30 31 31 30 30 29 28 28 27 27 25 26 25 23 24 25 24 24
27 26 19 25 17 15 29 29 27 27 33 33 33 31 29 27 28 26 23 23 18 19 25 27 29 29 29 30 30 30 30 30 29 28 28 28 26 26 26 23 23 22 23 22
26 25 26 24 24 18 29 30 31 35 32 29 31 27 26 29 26 26 25 18 23 25 26 28 29 28 29 30 30 29 29 29 29 28 28 25 24 22 25 24 24 24 23 18

GFSNW_sfc_dewp_174.txt.gz
Dewpoint
45 44 46 50 51 49 46 41 33 39 43 30 34 30 30 32 25 26 22 22 21 19 20 17 17 21 20 23 23 18 19 18 11 10 15 17 14 16 17 18 19 21 20 16
43 43 43 45 51 49 44 38 38 44 40 23 26 29 29 30 27 25 22 22 24 21 18 16 19 19 22 24 25 26 24 20 17 9 10 20 18 18 18 21 20 15 16 16
41 42 42 42 48 48 44 38 32 37 41 33 27 26 27 27 30 28 27 23 22 21 17 17 16 17 23 26 23 36 30 22 18 15 15 21 16 18 17 16 19 17 15 16
41 41 42 41 45 47 44 38 34 33 31 33 32 28 28 26 25 27 26 22 20 18 17 18 17 18 19 23 32 29 24 20 21 18 16 22 18 16 17 16 17 15 13 15
39 40 43 43 45 47 42 34 34 37 34 34 35 34 32 28 28 26 25 24 26 27 19 17 14 21 22 23 26 25 25 19 20 16 18 21 18 18 20 21 21 21 21 21
39 39 41 44 44 44 40 41 38 36 31 31 32 30 31 30 32 31 29 29 28 28 28 30 28 24 24 25 27 27 28 23 22 16 19 22 21 23 23 23 27 25 21 22
39 39 42 44 45 43 40 40 40 34 27 31 29 30 31 30 31 30 31 32 30 31 36 33 32 30 30 31 30 31 28 27 26 20 24 18 21 24 24 26 25 27 25 25
40 42 42 43 44 44 40 41 40 36 26 29 29 31 32 31 32 31 32 32 33 37 36 32 29 27 24 25 28 30 31 26 21 21 21 19 20 19 18 20 21 25 25 26
41 41 42 42 44 43 40 39 41 39 33 28 29 28 30 29 28 29 30 32 37 37 34 30 23 21 25 21 23 28 26 30 25 24 19 13 18 24 28 26 21 26 31 31
41 42 43 43 44 43 41 38 40 37 33 31 35 34 31 32 31 27 28 31 33 36 31 28 25 24 24 19 19 19 26 26 24 24 23 22 23 23 30 21 21 29 34 33
41 42 43 43 43 43 41 38 41 37 34 36 37 37 35 37 35 30 30 31 28 31 28 28 27 27 24 22 21 22 21 23 23 24 22 19 30 28 24 28 32 35 35 36
41 41 43 43 43 42 42 37 40 41 36 32 38 39 40 38 38 37 35 33 31 32 27 29 29 27 26 25 21 27 19 25 26 26 25 33 35 34 35 37 35 35 34 36
40 40 41 41 41 42 41 37 38 37 34 31 33 30 35 39 40 42 35 34 35 35 37 32 32 27 28 24 26 28 32 35 32 31 33 32 33 34 36 36 35 36 37 38
40 40 41 42 42 41 41 38 37 36 35 28 27 34 35 38 40 41 41 39 41 39 38 35 32 31 33 29 30 30 31 33 31 32 31 32 33 34 36 34 35 37 38 37
39 39 40 41 41 41 39 37 38 39 33 27 31 34 34 36 37 39 41 40 39 36 33 33 31 31 31 30 30 29 30 29 28 25 30 31 32 35 32 32 34 37 37 36
40 39 39 41 41 41 37 32 36 39 38 33 29 32 31 34 36 36 38 38 36 33 29 28 28 31 31 24 24 25 29 30 30 28 32 34 35 34 33 35 38 39 38 35
39 39 40 41 41 37 33 29 34 41 40 32 29 28 30 36 35 34 34 35 33 32 30 27 28 31 34 29 24 25 27 27 28 32 33 30 29 33 37 37 35 36 35 35
39 40 40 41 41 40 36 37 41 44 37 35 28 26 29 35 32 32 36 33 34 33 28 31 28 29 32 27 25 26 25 25 25 25 28 29 32 37 33 32 32 32 32 32
40 40 39 39 38 35 34 41 41 42 37 30 29 25 23 34 34 34 35 34 31 35 32 31 32 26 25 26 25 26 28 30 31 33 33 33 32 32 31 31 31 30 30 31
40 38 34 30 35 40 41 39 34 34 33 32 26 28 26 31 32 30 31 33 30 26 29 34 30 26 27 28 31 30 32 33 33 30 30 31 30 31 31 31 31 30 30 30
37 32 31 38 41 36 34 30 28 30 28 30 28 27 28 34 28 29 32 28 30 25 24 27 24 25 29 33 33 34 33 33 32 32 31 31 31 30 30 30 32 32 32 32
35 36 39 39 34 30 27 26 28 26 23 28 28 27 28 32 34 28 30 26 28 24 32 28 22 30 33 34 32 32 32 31 31 30 29 29 29 30 29 29 31 31 30 28
38 35 31 28 28 21 20 16 22 22 25 27 29 27 30 34 33 29 28 24 22 32 28 22 24 30 32 34 34 32 32 30 30 29 28 28 28 28 26 25 25 26 27 26
32 28 20 19 17 20 22 23 24 25 29 28 28 28 29 31 29 29 25 26 28 22 21 21 26 29 30 32 33 31 30 29 28 27 28 26 26 26 21 20 22 26 25 25
29 25 17 21 22 25 27 26 29 31 33 33 32 32 32 30 27 27 26 25 21 22 20 23 28 29 30 30 30 30 29 28 28 28 27 26 25 25 22 22 22 24 24 24
29 26 23 26 21 18 28 28 27 30 32 33 33 30 27 26 28 26 24 22 18 19 24 27 29 28 29 30 30 30 29 29 28 28 27 27 26 25 23 21 22 24 25 23
26 25 25 22 19 15 18 19 24 30 31 24 29 25 24 27 26 25 28 18 19 26 27 26 28 29 29 30 29 29 29 28 28 29 29 28 24 23 26 25 23 22 22 18

GFSNW_sfc_dewp_177.txt.gz
Dewpoint
45 46 49 51 51 49 46 41 34 41 44 34 34 31 30 32 25 26 25 21 20 19 19 16 14 16 21 22 25 20 23 21 15 11 15 18 15 15 17 17 19 28 27 27
44 43 43 48 51 49 45 39 38 45 41 28 28 29 29 29 28 26 24 23 23 22 19 17 20 21 23 26 24 26 26 24 22 15 11 19 18 17 18 20 19 13 18 24
42 42 41 44 51 49 45 37 32 37 41 33 28 26 27 27 30 29 29 28 25 22 19 19 18 18 21 27 26 35 33 26 26 23 19 22 20 18 16 16 17 20 22 23
41 41 42 40 46 48 44 37 34 35 31 33 31 28 27 26 25 28 28 24 24 20 16 17 16 17 17 23 30 28 28 21 23 24 22 22 24 20 18 14 15 16 19 16
41 40 42 43 45 47 42 33 34 36 33 35 33 32 29 27 27 26 25 24 23 24 22 22 23 25 22 19 20 22 26 19 21 18 18 19 19 19 19 17 15 17 17 16
39 40 42 44 43 46 41 41 40 37 32 31 32 29 31 30 31 31 29 28 28 28 28 30 31 30 28 25 24 26 26 24 20 16 19 20 21 22 20 19 19 20 19 23
39 40 43 44 44 43 42 41 41 34 28 31 30 29 30 29 30 30 30 32 31 31 35 36 34 33 31 31 30 29 26 26 24 22 22 18 22 23 23 26 25 29 26 25
41 42 42 43 44 44 41 42 40 37 29 28 28 30 30 31 32 31 31 32 34 36 35 31 29 27 26 26 27 29 31 27 27 24 23 20 19 20 22 21 19 23 24 25
42 42 42 42 43 43 42 40 43 38 31 27 28 27 28 27 27 29 30 33 37 37 33 31 25 21 22 22 22 28 29 31 28 26 21 17 17 24 28 27 24 26 28 31
42 41 41 41 41 42 42 40 42 38 33 33 30 29 29 31 31 29 29 31 35 37 32 28 24 25 26 21 18 20 25 27 25 23 20 19 26 27 29 19 22 32 36 35
41 41 41 41 42 42 42 40 42 37 32 32 33 35 32 33 33 31 35 33 32 34 30 28 26 26 28 24 22 19 19 20 23 24 21 15 34 31 25 32 36 36 35 35
41 41 40 40 42 42 42 38 41 42 36 32 37 37 38 37 38 37 36 34 34 33 31 29 29 27 28 24 19 25 22 22 22 24 24 33 33 32 35 37 36 36 36 35
40 39 39 39 41 42 41 39 40 39 33 32 32 28 30 35 38 40 35 36 37 36 38 34 33 28 29 25 25 25 29 34 30 31 33 32 32 33 34 35 38 36 34 35
39 39 39 40 40 41 41 39 39 38 34 28 26 33 32 35 35 37 40 38 41 40 38 35 34 31 34 29 28 29 29 34 31 32 32 33 32 34 34 35 39 36 34 37
38 39 39 39 40 41 41 39 39 40 34 26 28 29 26 29 36 37 39 40 39 36 33 32 32 33 33 32 31 30 32 30 29 27 30 30 29 34 35 33 30 31 36 39
38 39 39 39 40 41 38 33 37 40 40 31 24 31 33 33 36 37 40 40 39 36 34 33 34 33 33 29 27 26 29 30 31 30 31 33 34 36 35 33 38 38 39 38
39 39 39 39 41 38 33 29 35 39 39 30 24 26 31 35 35 36 37 38 37 36 34 32 32 32 35 31 26 25 28 28 29 31 31 30 33 32 30 37 36 35 34 34
39 38 39 40 40 39 36 37 41 42 36 33 24 25 29 36 33 35 37 35 35 35 33 32 31 31 33 28 25 26 26 26 28 28 29 29 29 29 32 35 33 32 32 32
38 38 38 39 37 35 35 38 40 41 35 29 26 25 24 35 34 35 36 36 31 35 32 31 31 28 26 27 27 26 26 26 26 31 34 33 34 34 33 32 32 31 32 32
39 38 35 31 35 39 40 37 33 33 33 32 27 32 28 33 34 33 32 32 29 27 28 33 31 27 28 27 28 28 29 29 30 33 32 31 31 32 32 31 32 33 32 31
37 32 30 35 39 37 34 28 28 28 26 30 29 28 29 35 31 30 32 30 29 24 25 27 25 25 29 33 33 33 33 33 33 33 32 31 31 31 31 31 31 33 33 33
35 36 38 38 34 30 27 24 28 28 24 29 28 29 31 34 34 31 32 27 27 22 31 28 23 28 31 33 32 32 32 31 30 30 29 29 29 30 29 29 29 30 30 29
39 35 31 31 28 24 22 19 23 24 26 28 29 28 31 34 34 30 29 24 21 30 26 23 26 30 33 34 33 32 33 32 31 29 29 28 29 28 25 25 26 28 29 29
31 29 23 23 21 24 24 24 26 28 29 30 29 29 30 32 30 29 24 25 26 21 21 22 28 30 32 33 33 31 29 29 28 28 28 27 27 26 23 23 25 29 28 28
29 29 22 21 24 26 28 29 30 32 31 31 32 32 30 29 27 27 24 23 19 19 21 26 29 30 30 30 31 30 29 29 28 28 27 26 26 25 24 24 26 28 27 26
30 28 24 27 24 26 29 29 29 33 33 34 33 30 28 28 28 26 22 19 19 23 27 29 29 30 30 30 30 30 29 29 28 29 29 27 26 26 26 25 25 26 26 25
29 26 27 25 24 25 25 26 29 33 32 28 29 24 22 27 26 24 27 24 24 27 28 29 29 29 29 30 30 29 29 28 29 29 28 28 27 27 26 26 26 26 25 23

GFSNW_sfc_dewp_183.txt.gz
Dewpoint
50 51 52 52 51 51 48 45 38 45 46 38 33 32 26 30 23 27 26 25 22 19 19 17 16 15 15 14 19 17 18 18 16 15 14 13 16 15 14 15 14 21 25 29
48 48 51 52 51 49 46 43 42 45 44 33 29 28 24 24 25 24 24 24 23 22 21 17 16 16 16 18 17 17 21 19 17 15 14 13 16 15 16 17 17 16 22 26
46 46 48 51 51 49 50 40 34 40 42 35 30 26 25 25 27 26 24 24 23 21 20 20 18 17 17 19 19 35 26 18 16 17 15 14 21 20 18 17 21 22 24 30
45 43 43 46 51 49 48 41 37 37 33 35 32 29 26 25 25 27 25 24 25 24 22 21 20 20 20 19 25 26 22 18 18 15 13 14 14 15 12 11 13 16 20 20
44 42 42 43 49 48 43 34 37 39 34 34 34 33 30 25 24 26 24 25 23 24 23 21 20 24 26 25 24 25 22 20 19 16 13 11 10 10 9 8 10 10 11 12
42 42 43 43 48 47 40 41 41 40 37 35 33 34 29 28 29 34 27 27 27 26 26 29 30 30 29 29 27 27 26 25 23 16 14 15 18 19 16 14 14 15 16 19
42 43 44 44 46 47 45 43 42 37 34 35 34 33 31 31 29 28 28 30 29 28 30 29 28 28 27 28 28 28 27 26 26 23 19 18 23 20 18 19 18 19 17 19
42 43 44 44 44 43 46 46 41 38 35 32 32 32 29 30 32 32 27 25 26 29 29 29 24 23 23 23 24 24 25 26 27 25 23 19 16 14 18 19 17 16 16 19
43 44 43 43 44 41 38 47 46 41 36 30 27 28 24 22 21 22 23 25 29 29 28 28 24 16 14 13 15 19 21 26 28 26 24 16 18 23 23 21 18 26 30 31
43 43 43 42 42 43 37 34 43 37 33 25 26 23 24 23 22 19 20 25 32 35 31 27 23 19 16 14 14 18 23 25 25 23 23 20 16 24 24 17 20 29 29 30
43 42 41 40 40 43 39 35 40 32 31 27 28 28 27 27 29 27 30 31 32 32 29 26 24 23 20 19 19 20 23 26 23 24 22 19 24 24 22 26 28 27 28 28
43 42 41 41 41 41 41 31 37 37 31 27 32 31 30 28 27 29 31 29 30 36 33 31 32 29 27 22 20 21 24 23 22 21 23 24 26 28 28 28 27 28 29 30
43 42 41 40 41 42 40 33 36 36 33 29 26 26 30 32 31 32 28 27 32 32 37 35 34 31 29 26 26 26 26 28 29 29 25 22 23 23 24 24 26 28 27 27
43 42 40 40 40 41 42 34 37 33 28 29 23 27 27 29 30 30 31 30 32 33 38 35 33 29 28 28 27 30 28 30 30 28 26 24 23 22 20 24 25 26 27 28
42 39 39 39 39 40 39 38 38 36 29 28 26 27 25 27 28 30 32 31 31 28 33 33 30 27 30 29 29 28 25 27 30 32 28 28 25 25 23 23 23 23 26 27
41 39 39 39 39 41 34 35 34 35 35 33 25 22 23 24 25 27 28 30 30 32 36 32 32 30 33 30 24 25 26 27 27 29 29 30 31 28 25 24 26 26 25 25
40 39 39 39 41 37 31 32 38 38 40 33 25 18 20 27 30 29 27 27 30 34 34 33 31 30 37 35 29 25 25 25 26 27 27 27 26 25 24 26 27 29 25 28
38 38 39 39 41 40 34 35 39 40 35 31 25 20 20 23 26 31 37 32 35 36 36 35 31 30 33 34 27 23 23 22 22 22 22 21 22 22 24 28 30 28 30 34
38 39 39 36 34 34 31 41 41 41 38 30 26 21 21 31 31 33 37 36 31 36 33 32 34 32 31 27 23 22 21 21 22 22 21 21 22 26 27 29 32 33 33 34
39 37 33 32 33 38 38 36 34 33 34 33 26 22 25 28 31 33 36 35 33 32 32 33 34 28 27 26 24 23 24 26 28 28 27 27 26 26 27 32 32 33 34 35
36 35 34 38 39 36 33 31 28 28 26 26 22 20 22 22 28 28 30 33 32 26 27 27 24 22 25 24 25 29 32 33 33 33 33 32 33 34 34 34 34 35 35 35
34 35 38 38 34 32 27 24 23 24 16 17 23 22 21 24 27 28 31 30 30 23 32 30 21 23 21 22 30 33 33 34 33 34 33 34 33 34 33 34 33 33 34 34
37 35 33 32 29 23 23 15 16 18 23 26 30 31 28 29 32 30 31 29 26 30 28 21 20 22 32 32 32 33 33 33 34 34 35 34 33 31 30 31 32 33 34 34
32 29 23 26 24 23 22 20 22 28 30 32 32 35 30 32 30 31 28 27 26 23 22 18 24 33 33 34 33 32 31 33 33 32 31 31 31 30 31 32 32 33 32 32
29 29 22 23 27 31 32 34 34 33 34 33 34 34 34 32 30 29 27 26 21 19 18 25 35 32 32 32 32 32 30 32 32 31 30 30 31 30 30 32 33 32 32 32
28 27 28 30 30 32 33 33 34 35 35 36 36 31 29 29 27 26 22 16 15 21 28 35 34 31 31 31 31 31 33 33 31 29 29 29 29 29 29 30 30 31 31 29
26 29 34 34 31 30 33 35 34 36 34 31 29 28 21 26 23 21 22 24 27 34 35 34 32 31 31 34 34 32 32 33 30 30 30 30 30 31 28 27 29 28 29 31

GFSNW_sfc_dewp_186.txt.gz
Dewpoint
52 52 52 52 51 51 48 46 37 46 47 37 34 32 26 30 24 23 25 26 24 23 21 17 16 14 15 15 16 14 19 19 17 14 14 13 13 15 13 17 14 18 21 27
52 52 52 51 51 50 45 43 42 46 44 33 30 28 25 26 25 23 24 25 24 24 21 18 18 19 19 20 17 18 20 19 17 15 15 14 14 17 18 22 23 17 21 25
50 51 52 51 51 50 51 42 36 41 42 36 32 27 26 24 24 23 24 25 24 23 21 20 19 18 18 20 19 36 26 19 17 17 14 13 14 11 16 20 22 21 23 26
47 48 51 51 51 50 49 42 36 38 34 36 32 30 29 27 25 28 26 23 24 23 22 21 20 19 19 19 26 24 23 17 17 15 12 13 14 11 11 14 19 18 16 13
46 45 46 50 51 49 45 35 37 39 35 35 33 34 31 28 25 25 28 26 23 23 22 23 21 21 26 27 26 26 29 30 27 16 16 14 12 12 10 9 9 10 12 11
44 43 44 45 50 48 42 42 42 40 37 33 35 32 29 28 28 28 31 28 26 25 29 34 32 32 32 30 28 26 27 27 28 24 21 19 20 20 14 14 14 15 14 19
44 44 44 45 49 48 44 43 42 37 33 35 32 31 30 31 29 30 31 32 31 31 33 31 29 28 26 26 26 26 26 26 26 23 22 19 23 20 20 21 19 23 18 17
44 44 45 44 46 47 46 46 41 37 34 33 31 35 37 38 38 37 35 36 35 34 33 26 22 23 21 21 22 23 26 27 26 23 21 20 19 18 19 20 23 30 19 26
44 44 44 43 43 41 39 46 47 41 36 33 33 31 32 33 30 29 31 29 33 28 24 28 21 15 13 13 13 16 22 27 27 26 20 14 18 24 29 29 24 27 28 28
44 44 44 43 43 41 36 39 46 41 36 32 29 26 24 26 23 21 23 26 30 29 31 26 22 20 17 17 16 18 21 23 26 25 23 27 23 28 27 21 23 27 25 26
44 43 43 41 41 41 39 42 38 36 33 26 29 26 27 24 30 27 29 28 29 32 29 29 25 24 22 21 19 20 21 22 24 28 24 19 30 27 26 28 28 26 26 29
43 43 41 40 40 40 40 33 35 35 30 26 32 32 32 30 29 29 29 28 28 35 32 32 31 29 28 30 24 22 27 27 28 27 27 33 34 34 32 29 28 27 29 28
43 42 40 40 41 41 40 34 36 33 30 28 26 25 29 31 32 34 25 24 26 28 36 34 33 28 26 24 25 27 29 29 31 32 28 27 26 25 24 21 21 21 24 25
43 43 41 40 40 41 41 33 35 33 28 28 24 25 26 29 30 32 33 32 32 31 35 34 31 26 25 25 25 25 26 27 29 32 32 30 27 26 29 27 21 21 22 24
43 41 40 39 39 40 39 35 35 35 31 28 25 26 25 26 28 28 30 32 32 30 32 32 29 25 28 25 24 25 23 24 28 29 31 32 30 32 34 32 32 22 23 26
42 40 39 39 39 40 33 34 34 35 34 32 25 22 21 22 26 25 29 29 31 32 34 33 31 29 31 27 21 21 20 23 33 33 32 31 31 31 33 33 26 22 25 27
41 40 39 39 40 37 32 32 37 38 41 33 25 18 18 23 25 28 27 30 30 32 34 32 31 29 32 29 26 25 25 25 25 28 28 28 28 28 27 24 23 27 25 28
40 39 39 39 40 39 32 35 38 38 35 30 25 19 19 20 23 27 34 33 32 32 32 32 29 29 31 28 24 23 21 23 26 24 23 24 23 21 19 20 21 23 28 29
37 39 39 35 33 31 28 41 39 38 37 29 26 20 20 29 29 32 34 35 32 33 31 29 28 27 28 28 25 24 25 25 22 21 25 24 24 22 21 21 24 30 30 34
38 36 32 32 30 40 38 34 32 32 34 32 25 22 24 25 30 30 30 33 31 27 30 31 31 28 27 27 28 27 27 26 27 29 28 29 30 31 28 26 27 33 33 33
35 35 33 37 38 31 32 30 27 27 25 26 22 21 22 23 26 28 28 27 29 26 29 31 25 23 25 26 26 31 32 32 32 32 33 34 34 34 34 34 36 36 34 36
35 35 38 37 33 31 25 22 22 22 16 16 23 21 21 24 25 28 31 25 27 22 32 28 21 26 29 29 32 33 34 34 34 34 34 35 34 33 34 34 34 34 34 34
35 32 32 31 28 22 20 16 15 19 23 27 29 29 31 28 26 29 27 26 26 29 28 21 21 30 33 33 31 32 34 33 34 34 33 34 32 32 32 32 33 34 33 33
32 27 21 24 21 21 19 20 26 30 31 31 30 33 30 30 28 29 26 26 27 22 20 17 28 34 33 33 34 33 33 32 33 31 32 31 31 31 31 32 32 32 31 31
29 27 20 21 28 31 32 32 32 32 34 34 32 31 31 30 29 28 26 24 21 19 18 29 35 35 32 32 32 32 31 31 31 32 30 30 30 30 30 31 32 31 31 30
29 26 25 28 30 30 32 30 32 36 36 36 35 32 29 27 28 27 22 17 16 25 32 36 35 33 32 31 32 33 33 32 32 31 30 29 30 29 29 29 29 30 29 29
25 28 33 32 32 31 31 33 34 36 35 30 29 27 22 26 23 21 24 24 32 34 34 35 33 32 33 35 34 32 33 33 32 31 30 30 31 31 29 28 29 29 29 29

GFSNW_sfc_dewp_189.txt.gz
Dewpoint
52 52 52 52 52 51 48 45 35 48 48 36 37 32 29 31 26 27 26 28 27 26 26 23 21 20 21 23 22 18 21 22 17 17 18 17 15 14 14 16 15 23 24 26
52 52 52 52 51 50 46 42 41 47 45 32 32 32 29 28 28 27 26 27 28 27 25 24 24 24 26 26 22 23 22 21 19 16 17 18 15 16 15 19 25 22 22 22
52 52 52 51 50 50 48 41 34 39 42 38 34 30 29 28 28 26 25 24 27 27 25 26 24 22 25 26 23 34 27 21 20 18 18 18 15 13 12 13 20 20 24 26
52 52 52 51 50 50 46 40 36 37 33 35 34 33 31 29 28 29 29 27 26 26 25 24 23 24 24 24 27 28 23 18 20 18 17 17 16 14 12 13 14 14 19 19
50 51 51 51 51 50 44 35 37 39 37 35 34 34 30 29 29 29 27 30 29 28 24 24 23 24 27 29 30 31 32 26 31 27 25 25 25 17 16 17 16 14 15 14
47 48 49 50 50 48 42 41 42 39 36 35 34 34 34 30 31 31 30 32 30 30 30 35 35 34 33 33 32 31 30 31 29 25 25 25 25 24 20 19 19 19 17 19
45 45 46 50 49 48 42 42 42 36 30 33 32 32 31 31 32 33 34 36 34 37 37 36 35 33 31 28 28 30 27 26 25 23 23 17 20 21 22 23 22 27 29 32
45 45 45 48 48 48 44 44 40 37 32 33 31 31 34 36 37 36 36 37 38 39 34 33 26 24 24 23 25 25 25 24 23 21 20 21 22 20 19 21 22 31 32 34
45 45 44 45 46 46 43 44 44 38 34 32 35 35 33 32 32 31 30 37 39 37 31 28 22 17 17 14 17 21 21 25 24 26 22 17 21 26 30 32 22 33 31 30
45 45 44 45 44 42 38 42 44 40 34 34 31 28 26 29 31 28 29 31 31 35 27 24 21 19 19 17 17 20 23 28 26 27 25 27 30 30 33 24 28 35 28 26
44 44 44 44 43 42 39 41 43 39 35 32 31 30 29 29 31 28 32 31 32 31 29 28 25 25 24 25 23 22 21 22 23 24 23 18 34 33 30 34 36 36 28 27
44 44 43 43 42 41 39 37 37 37 33 29 30 32 33 32 30 31 31 30 31 34 28 28 27 25 28 28 21 29 25 30 30 29 28 35 38 37 35 35 34 30 25 28
43 43 42 41 40 40 39 37 36 34 29 29 28 26 29 32 33 33 28 29 28 30 34 31 31 23 27 24 24 30 28 29 29 29 31 30 30 32 32 32 32 27 25 25
43 42 42 42 41 41 40 37 37 34 30 23 26 27 29 31 32 34 33 30 31 31 33 31 29 26 27 25 26 24 24 27 27 27 27 32 32 31 34 35 36 34 29 23
43 42 41 41 41 41 39 37 37 37 32 24 26 28 25 25 30 31 31 33 32 30 27 27 26 27 26 25 25 23 23 21 25 23 30 33 31 33 33 34 33 33 32 26
42 41 39 39 40 39 36 31 36 36 35 28 21 27 25 27 28 28 30 31 31 32 28 27 29 29 28 22 22 19 20 23 24 29 31 28 28 32 30 31 33 35 33 26
41 41 40 39 40 37 34 32 35 39 38 28 23 23 25 27 26 28 28 28 29 28 29 29 28 28 31 24 22 22 23 24 25 26 26 25 27 29 28 29 26 28 25 27
41 41 40 39 40 37 32 37 38 39 34 31 22 22 21 25 23 26 32 30 29 29 29 29 28 29 30 26 24 24 25 25 25 25 25 25 27 27 24 24 22 22 29 35
41 40 40 36 34 29 33 41 39 38 32 22 24 20 17 29 30 32 32 34 29 34 27 26 29 25 22 26 27 25 26 26 28 28 31 30 32 32 34 34 29 33 35 36
38 33 33 30 32 41 38 33 29 31 29 29 23 23 20 23 24 24 26 30 27 26 26 30 27 24 24 23 24 24 26 28 32 31 32 34 34 35 35 36 37 36 37 39
35 29 28 36 39 32 29 20 23 22 21 26 26 23 21 26 19 20 24 21 26 20 26 26 28 27 28 35 36 37 36 35 35 34 35 35 34 33 34 35 34 35 35 35
35 36 38 36 33 27 22 19 24 22 19 22 25 24 25 25 26 22 22 21 22 19 32 29 25 29 34 35 34 33 33 32 32 32 33 33 32 31 32 32 34 34 33 32
37 34 28 26 24 20 17 12 18 19 25 30 30 27 31 30 28 25 24 19 17 28 21 19 24 33 33 33 33 33 33 32 31 30 30 30 29 30 31 31 32 31 31 32
27 22 12 16 14 21 22 23 26 29 30 29 32 31 31 32 30 27 20 25 26 16 11 19 27 31 32 32 33 33 30 30 30 30 29 30 30 29 30 31 31 30 30 31
25 25 15 21 24 28 29 30 29 30 32 31 29 30 30 23 22 26 24 21 17 20 19 26 32 33 32 31 32 31 30 29 28 30 28 29 29 28 28 29 30 30 29 30
29 26 22 26 26 27 28 28 27 32 33 32 32 29 26 23 22 22 19 21 18 24 31 32 33 32 30 30 31 32 32 31 31 28 29 30 29 28 28 28 28 29 29 28
25 23 27 25 26 28 29 30 30 35 32 25 29 26 24 30 26 23 27 24 27 30 31 32 32 30 31 30 32 31 31 31 31 29 29 29 30 28 29 27 28 28 28 27

GFSNW_sfc_dewp_195.txt.gz
Dewpoint
55 55 55 54 52 51 50 45 37 50 48 36 36 33 34 32 28 33 29 31 28 26 26 25 24 23 22 26 26 20 22 18 17 15 18 18 17 18 19 18 13 23 25 23
55 54 53 52 51 50 47 41 43 49 45 33 32 35 32 30 29 30 30 29 30 29 27 24 27 27 29 29 25 23 21 20 17 13 17 18 17 17 17 19 19 20 20 20
54 53 53 51 50 50 47 41 33 41 42 40 34 32 31 33 32 30 30 29 29 29 26 28 26 27 29 31 28 35 28 20 18 16 16 19 17 16 16 18 19 17 19 20
54 53 52 51 50 50 46 40 35 37 32 35 33 31 34 32 32 32 31 27 28 28 26 26 25 27 28 29 32 30 25 21 23 21 20 20 19 19 22 21 20 20 20 20
53 52 51 50 50 48 43 35 36 39 36 37 35 35 34 35 33 34 32 29 30 31 29 28 27 29 28 27 29 29 31 23 27 24 24 24 23 23 26 27 26 25 24 23
51 51 50 50 50 47 41 42 42 38 36 35 33 33 34 32 34 34 32 30 31 32 32 34 33 33 33 32 31 31 31 29 28 23 27 28 25 26 25 23 22 21 19 22
50 50 50 50 49 46 43 42 41 35 31 34 33 34 34 34 34 32 35 35 34 36 38 36 35 35 34 34 34 32 30 30 28 24 26 18 21 23 22 23 22 24 23 23
50 50 49 49 48 47 44 43 41 36 31 34 35 35 34 34 35 35 34 35 37 38 36 31 28 26 28 29 31 31 32 28 27 24 24 23 18 20 19 21 19 26 29 33
48 49 49 48 48 47 45 43 43 39 33 32 33 34 33 31 30 31 32 36 40 39 35 30 24 20 20 17 17 27 28 30 27 26 20 15 17 30 32 32 25 34 34 34
48 48 48 48 48 47 45 43 43 39 33 34 34 32 31 32 30 28 29 29 34 36 31 25 23 22 21 18 16 16 24 26 25 23 22 21 31 35 35 25 25 35 36 35
48 47 47 46 47 46 43 41 41 37 32 33 34 31 31 32 31 26 29 27 29 30 23 24 23 23 25 25 23 20 18 19 20 23 19 16 32 32 30 33 37 37 35 36
46 46 46 44 45 45 42 39 41 37 32 30 31 32 32 31 31 29 30 24 29 31 23 23 23 24 23 24 18 24 23 28 25 26 22 28 34 32 33 35 36 35 35 35
43 43 43 44 44 42 39 36 35 33 29 26 26 25 27 32 32 32 26 27 30 30 30 28 29 24 24 19 19 22 23 33 27 25 26 28 30 32 34 36 36 37 35 33
43 43 43 44 44 42 38 34 35 33 29 23 21 29 28 30 32 31 29 26 30 31 30 23 21 21 26 21 19 18 19 23 24 23 21 23 25 29 28 30 36 37 35 35
43 42 43 43 42 40 37 35 36 34 26 23 24 27 26 27 29 31 31 28 27 27 23 20 23 26 25 23 23 20 22 20 20 17 17 20 20 26 26 29 25 24 25 31
42 42 42 41 40 36 30 28 34 36 32 25 17 25 26 26 26 27 31 31 29 28 25 23 26 27 26 20 19 16 18 20 21 20 21 23 25 28 27 24 25 27 27 29
41 41 41 41 39 35 28 26 32 36 34 24 19 20 23 26 26 26 26 30 30 29 26 23 25 26 28 24 21 20 22 24 24 25 25 23 23 24 26 27 28 30 29 31
41 40 40 39 37 34 30 33 38 35 30 28 20 21 21 23 19 21 28 25 27 27 25 26 25 26 28 24 21 21 21 22 24 25 25 26 26 27 28 34 36 34 29 30
39 38 36 32 30 28 31 40 38 35 27 18 21 19 15 26 25 27 25 28 19 28 23 24 27 27 22 24 23 23 23 24 25 26 28 29 30 34 36 37 37 36 33 35
36 32 26 20 30 37 34 28 26 24 25 27 23 23 20 21 20 18 18 24 24 22 24 28 27 24 25 24 25 25 32 34 30 30 30 32 33 33 33 34 34 35 35 35
30 25 24 32 37 29 24 16 15 18 19 23 25 24 20 23 16 17 21 15 21 19 21 21 19 23 31 35 34 34 33 33 33 34 33 33 32 32 30 32 32 33 34 35
31 33 34 31 25 20 16 16 23 20 19 22 22 24 28 29 31 25 18 16 18 16 24 22 20 29 34 35 33 31 31 31 30 29 30 30 29 29 30 31 30 31 33 32
33 26 19 19 22 14 10 6 18 15 22 23 24 23 28 30 32 28 21 18 18 23 21 20 27 31 32 33 33 33 31 31 30 29 29 30 30 30 30 29 31 31 31 31
22 16 14 8 11 16 18 20 21 24 27 28 29 27 27 27 26 26 22 23 24 16 9 20 28 31 33 33 34 33 30 30 29 29 29 28 26 27 28 28 28 29 29 30
21 18 7 15 19 20 19 21 24 29 29 29 28 28 28 25 24 26 25 19 17 20 21 28 29 30 31 31 30 30 29 30 29 30 29 28 28 28 28 28 28 28 26 25
25 24 16 17 14 12 12 14 20 28 29 32 31 23 24 21 22 21 17 19 17 22 27 28 28 27 27 28 28 28 29 31 30 30 29 29 28 27 28 27 26 27 27 24
25 17 18 15 14 14 14 18 23 31 32 22 27 22 23 28 24 23 26 20 23 26 28 28 26 26 28 29 30 29 30 29 27 30 30 29 27 26 28 25 26 26 26 25

GFSNW_sfc_dewp_198.txt.gz
Dewpoint
55 55 55 55 54 52 52 46 40 49 51 40 41 36 37 35 30 31 31 32 29 27 26 25 24 22 23 25 25 20 23 19 16 15 17 19 18 17 19 17 13 21 24 19
54 54 54 53 52 52 48 42 43 49 47 36 34 37 35 33 30 30 29 28 31 30 27 24 27 27 30 29 25 25 22 21 18 15 17 18 17 17 17 19 20 16 19 19
54 54 54 54 52 52 51 42 34 40 43 41 37 35 35 35 35 32 32 30 31 29 28 28 27 27 30 32 27 35 29 22 20 19 19 20 19 18 18 17 17 17 17 20
53 53 54 53 52 52 49 40 36 37 32 35 36 36 36 34 34 37 37 35 34 32 30 30 29 27 29 29 33 30 26 22 23 22 23 23 22 21 21 19 18 17 18 18
52 52 53 53 52 52 48 35 36 39 37 36 36 36 34 34 35 35 34 34 33 33 31 28 28 29 29 28 28 28 29 24 24 22 23 23 22 23 23 23 23 23 25 24
51 52 53 53 51 51 43 42 43 40 37 36 34 33 34 35 36 36 37 35 34 33 34 34 34 33 32 31 29 29 29 28 28 21 23 25 23 24 26 25 25 24 21 22
50 51 52 52 51 51 44 43 41 36 31 34 34 35 36 35 35 34 36 37 35 36 39 37 35 35 34 34 34 32 30 29 28 23 24 17 21 25 24 25 25 24 23 23
50 52 52 51 51 49 45 44 40 36 31 33 33 34 34 35 36 36 36 36 38 39 35 31 27 26 27 29 33 32 32 29 26 23 20 20 21 21 23 23 23 25 27 31
50 51 50 48 47 47 45 44 44 38 34 32 35 34 34 32 32 32 34 38 40 38 34 29 23 19 21 18 19 29 31 32 28 25 21 14 20 31 34 34 21 34 34 34
49 48 47 47 47 47 45 42 44 40 32 37 37 34 33 34 33 30 31 34 35 35 28 26 23 21 23 18 18 16 25 27 24 23 21 24 29 30 33 21 23 34 36 36
47 47 48 48 47 47 44 41 43 39 34 36 37 37 34 33 32 28 30 28 30 31 28 26 22 23 24 23 23 20 18 18 21 23 20 17 31 27 22 29 31 32 35 38
47 47 47 47 47 46 44 39 42 38 35 35 33 32 33 32 31 29 29 26 30 30 24 24 22 23 22 19 18 22 22 25 21 24 20 29 31 30 30 31 30 32 36 38
47 47 47 46 46 44 42 39 36 33 30 27 27 26 28 32 32 32 28 29 30 29 29 25 22 20 23 19 20 20 21 31 26 24 23 27 30 30 27 30 33 35 36 36
45 45 44 44 43 41 38 34 35 32 28 25 22 29 27 31 31 31 29 29 31 30 28 22 19 19 24 20 19 18 18 20 21 21 19 20 22 21 25 23 26 27 34 29
44 43 43 42 42 39 37 36 36 33 23 24 24 25 27 27 31 30 29 28 27 27 23 21 23 25 23 23 23 20 22 19 19 16 17 21 19 20 22 25 23 26 26 24
42 42 42 40 38 34 31 29 34 36 31 25 18 24 25 26 26 28 30 29 28 27 23 21 24 26 24 19 19 17 18 19 20 19 21 22 23 25 25 26 25 25 25 26
42 42 41 41 39 35 29 27 33 35 33 24 18 16 23 26 25 26 27 30 29 27 24 21 25 26 28 25 21 20 21 21 22 22 24 24 24 22 23 25 27 29 28 32
40 40 39 38 37 34 32 36 37 33 29 27 19 18 18 25 20 20 27 25 26 25 25 25 24 25 26 23 22 21 21 22 23 23 23 22 23 24 26 27 30 36 36 36
38 36 35 32 30 30 33 38 35 33 26 18 20 16 11 25 24 26 25 27 17 25 19 23 24 21 21 23 23 23 24 23 24 26 27 26 27 28 33 35 35 35 35 36
35 30 27 23 31 38 32 27 24 23 23 27 20 23 19 20 19 18 17 24 22 20 23 28 22 22 24 26 30 33 34 35 36 34 31 33 34 34 33 33 33 33 34 34
30 27 30 32 35 28 23 15 15 18 18 22 24 23 19 23 15 16 21 14 20 17 19 23 20 21 27 34 33 33 31 31 30 30 30 30 31 30 29 28 29 29 30 34
31 32 32 29 23 18 14 15 22 20 18 22 21 22 23 25 27 21 19 15 18 15 23 23 17 26 33 34 33 32 30 30 29 29 28 28 28 28 29 29 29 29 32 32
30 25 17 16 20 9 8 6 16 14 21 22 26 23 25 27 30 26 24 16 16 22 20 17 23 32 33 33 34 34 34 31 29 29 29 29 29 28 28 28 29 29 30 31
21 14 7 7 7 13 17 18 19 22 25 26 26 27 27 23 25 21 18 21 22 16 14 16 26 29 30 30 31 29 29 29 29 29 29 29 28 27 28 28 28 29 28 28
21 15 1 12 16 18 17 19 21 23 24 20 23 25 25 25 23 23 25 21 15 17 19 25 27 28 28 28 27 27 28 27 28 30 29 28 28 28 28 26 25 28 24 22
25 22 13 16 14 9 8 12 16 24 23 29 30 21 21 20 23 20 17 19 16 19 25 28 26 25 25 28 28 28 30 30 30 30 28 28 28 27 28 27 25 22 23 21
24 15 17 14 12 12 12 16 21 27 30 16 26 21 20 25 21 21 25 21 23 25 26 26 25 24 25 26 29 27 27 28 29 28 28 29 27 25 27 24 25 25 25 25

GFSNW_sfc_dewp_201.txt.gz
Dewpoint
54 55 55 54 54 54 53 47 41 49 52 41 41 38 40 39 33 33 33 32 29 30 27 26 24 23 24 24 25 20 21 21 16 16 17 19 17 17 18 17 13 18 21 22
54 54 54 54 53 53 49 44 43 50 49 36 36 39 38 36 32 31 31 31 32 31 29 26 28 28 29 29 26 25 24 22 19 18 17 18 17 17 18 20 20 19 19 22
53 54 54 54 53 53 50 43 33 40 43 42 38 37 36 36 37 34 32 31 32 32 30 30 28 28 28 30 27 35 32 25 23 22 19 21 21 21 21 21 24 23 22 25
51 52 53 53 53 53 48 42 36 38 33 36 38 38 37 35 35 35 35 35 33 34 32 34 32 34 33 31 34 32 29 26 24 23 22 22 23 22 22 21 21 19 21 19
51 52 53 53 52 52 51 36 37 40 38 38 38 37 36 36 36 36 35 35 36 36 33 32 31 34 34 32 31 29 30 28 26 24 23 23 22 22 22 22 22 22 22 21
50 51 52 53 52 52 44 43 44 41 37 37 35 36 36 36 37 37 37 36 35 33 35 36 37 37 37 35 34 32 33 31 28 22 22 24 23 23 23 22 24 22 21 24
49 50 50 51 52 52 46 44 43 39 34 36 35 36 37 36 37 35 35 37 35 37 41 40 39 37 37 35 35 33 31 29 27 22 23 17 19 25 23 25 25 27 26 25
47 48 49 51 52 52 48 44 42 39 33 35 35 36 36 37 36 34 34 36 38 41 37 33 30 30 28 29 32 32 32 29 26 23 20 19 19 23 25 25 23 34 33 34
46 48 49 50 52 52 49 45 44 41 34 32 36 34 35 32 32 32 34 39 42 39 35 31 24 20 20 18 19 32 33 33 28 25 19 10 19 31 31 34 23 30 32 33
45 48 49 50 51 51 45 43 44 39 32 36 37 34 33 35 34 32 34 37 36 36 31 27 24 21 23 17 17 22 27 27 26 24 22 22 27 27 34 21 21 28 29 31
47 49 50 50 51 48 45 41 43 39 33 35 38 37 35 35 34 30 34 33 33 32 28 27 25 24 23 23 22 18 19 21 22 23 20 16 26 23 16 24 27 26 26 32
48 49 49 47 46 46 44 39 42 42 36 35 39 38 41 39 37 34 33 30 31 33 28 28 26 24 24 23 18 22 21 24 24 25 24 29 28 28 29 30 28 29 29 32
47 46 46 46 46 45 43 40 39 39 34 33 35 33 33 34 34 36 28 30 32 29 32 29 26 22 23 19 19 20 21 31 24 24 20 24 26 27 28 29 30 26 28 28
46 46 46 46 44 43 41 39 38 37 34 30 29 31 30 31 34 32 33 32 33 32 31 28 27 21 25 19 17 17 16 19 18 18 19 19 19 20 22 22 20 21 22 24
44 44 44 43 42 40 38 38 37 34 29 27 27 27 28 30 32 31 32 32 30 28 28 27 25 24 25 23 23 18 19 16 17 19 20 22 20 20 21 22 21 21 24 25
43 43 42 41 40 36 28 30 35 34 31 28 22 26 27 28 31 31 30 30 28 28 29 27 26 26 26 22 18 15 16 20 21 21 23 23 25 24 23 23 23 25 25 26
42 42 41 41 40 37 31 28 34 35 34 27 21 19 24 26 27 27 29 31 29 28 28 27 26 26 29 25 18 18 20 21 22 23 24 23 23 24 24 25 24 27 27 29
40 40 40 39 38 36 31 35 34 32 29 27 21 18 21 25 22 24 29 28 28 28 28 28 26 27 28 23 21 21 21 22 23 24 24 25 25 24 24 26 32 35 35 36
38 38 37 35 33 32 34 36 33 33 29 23 22 16 18 26 24 28 27 29 24 27 26 25 26 24 22 22 22 24 26 26 26 33 36 36 33 32 34 35 35 34 34 33
37 33 29 29 34 37 32 26 25 25 26 27 22 23 20 21 22 21 22 25 23 19 21 27 25 21 23 24 31 34 34 34 31 30 29 30 30 31 30 29 30 30 30 30
32 30 31 34 34 28 25 20 20 22 21 23 24 22 20 24 21 21 22 21 23 16 20 23 21 21 28 34 34 34 33 29 28 28 28 28 28 29 29 29 30 30 29 30
32 32 32 29 23 20 16 18 22 20 17 23 23 23 25 27 29 25 24 19 21 15 24 23 19 25 33 33 33 33 34 31 28 28 27 28 28 29 28 28 28 29 30 30
29 25 18 19 17 9 10 10 17 19 23 25 28 25 28 29 28 25 23 19 18 23 19 16 22 28 29 29 30 29 30 30 30 30 30 30 29 29 28 28 29 29 30 31
21 16 8 10 8 15 17 18 21 23 27 26 27 26 26 26 25 24 19 21 23 17 13 16 25 27 28 29 28 26 26 29 29 29 31 31 30 29 29 29 29 29 29 26
21 15 7 13 17 20 20 22 25 26 27 26 26 26 27 25 23 23 22 20 17 18 19 25 26 27 26 26 27 27 26 28 29 27 30 30 29 29 29 29 29 28 26 24
25 20 15 20 18 16 17 22 22 26 27 29 29 23 22 21 21 19 17 19 16 21 25 27 26 24 24 25 26 28 28 28 28 27 28 27 28 29 30 28 28 26 25 23
22 18 19 18 17 18 18 20 24 29 28 22 24 21 18 25 21 19 24 22 24 26 25 26 23 23 24 26 27 28 28 28 28 28 28 28 30 29 28 27 27 26 26 25

GFSNW_sfc_dewp_207.txt.gz
Dewpoint
51 52 53 54 54 53 52 49 44 53 55 45 45 44 43 43 41 44 40 40 40 40 41 39 37 37 35 32 31 25 30 31 29 28 28 25 21 21 22 23 20 24 25 29
50 51 52 53 53 53 52 46 45 51 53 41 41 44 43 43 41 36 39 38 40 41 40 38 39 38 39 36 38 32 32 29 26 27 28 26 22 21 20 22 23 23 26 29
49 50 51 52 53 53 53 43 36 44 46 45 44 42 42 41 41 40 40 38 37 38 37 39 38 39 40 37 32 38 34 32 30 30 30 33 29 24 22 22 25 24 26 29
49 49 50 51 52 53 52 44 38 41 35 40 42 44 42 41 39 40 39 38 38 38 37 38 38 39 38 38 37 33 34 33 32 30 29 29 29 28 27 22 21 22 25 23
48 49 49 50 51 52 49 40 39 42 41 42 42 41 42 41 41 38 37 38 39 39 39 38 38 38 37 37 38 36 39 33 32 31 31 29 28 27 27 28 27 24 24 25
48 49 49 49 50 51 47 48 46 44 41 40 40 40 40 41 42 40 40 39 40 40 41 42 43 41 40 38 37 37 37 34 35 29 27 28 29 28 25 24 24 24 24 24
48 48 48 48 49 49 49 46 47 42 37 39 39 40 41 41 42 42 41 42 40 42 42 40 39 39 39 39 38 38 37 33 35 29 26 24 24 22 20 22 22 22 18 18
48 48 48 48 48 48 49 48 46 44 39 39 40 40 41 42 42 42 39 40 42 42 38 33 32 32 34 35 37 38 37 35 33 28 24 22 19 19 19 18 17 18 19 21
47 47 48 48 48 49 49 48 49 46 40 38 40 40 41 40 38 33 34 39 43 40 35 34 30 26 26 29 30 38 37 35 34 31 25 18 22 24 23 23 21 19 22 27
47 47 48 47 48 48 48 47 49 48 38 40 43 40 39 40 37 34 34 38 38 39 35 32 31 30 27 25 24 31 32 33 30 28 28 25 21 25 26 21 19 25 24 24
47 47 47 47 47 47 48 47 49 46 41 38 41 41 40 38 38 33 33 33 33 33 33 34 33 31 27 23 22 24 28 29 29 28 28 24 23 26 26 26 29 27 27 26
47 47 47 47 47 46 47 45 47 44 39 35 40 40 42 42 40 37 36 36 35 37 35 36 36 31 31 28 25 25 25 26 27 32 26 30 27 25 26 25 24 23 23 22
46 46 47 47 47 46 46 47 43 41 34 33 35 34 38 40 42 43 34 37 39 39 38 36 35 32 29 28 26 26 25 25 27 26 25 23 24 23 20 17 17 15 17 16
45 46 46 46 46 46 47 44 44 42 37 32 32 37 35 40 42 42 41 39 37 37 37 35 34 31 27 26 22 22 22 23 24 25 22 17 15 16 17 14 15 16 16 17
45 46 46 46 46 46 47 44 43 44 40 32 33 36 37 40 40 39 39 39 38 36 34 33 28 22 21 18 17 15 15 17 19 19 17 18 17 17 17 18 19 20 20 21
44 45 45 45 45 44 41 35 40 42 41 34 28 35 36 38 38 37 36 35 34 31 33 30 26 21 19 20 13 13 13 14 15 15 16 18 21 21 21 22 22 21 22 22
44 44 45 45 45 45 38 36 38 42 42 33 29 28 34 35 33 33 32 31 28 26 27 26 20 22 22 22 16 12 12 11 13 15 18 19 20 22 27 28 28 28 24 24
44 44 44 44 42 40 37 41 41 40 38 33 27 26 29 29 25 27 29 25 25 26 24 26 19 20 23 21 12 13 11 13 16 19 21 25 31 31 31 32 33 32 30 30
41 41 40 39 37 34 35 37 38 43 38 31 27 23 23 27 26 28 29 28 28 30 26 19 19 19 21 18 16 13 17 26 28 30 31 32 30 29 29 29 29 29 29 30
39 39 35 31 35 37 37 35 33 32 30 28 24 22 21 24 25 26 28 32 24 22 20 20 25 19 17 14 25 29 31 30 30 30 35 30 27 27 27 27 28 28 28 29
39 35 31 35 36 34 31 31 28 24 21 21 18 19 20 21 24 26 24 24 22 17 19 21 19 16 28 32 35 35 33 31 29 31 34 30 27 26 26 26 27 27 28 29
35 33 33 31 31 28 24 19 17 16 14 19 18 19 24 29 28 26 28 21 22 13 24 24 18 29 32 33 33 31 31 30 30 31 33 31 27 27 27 27 26 26 29 32
28 29 35 35 27 21 14 13 14 20 23 26 28 28 29 27 27 26 24 22 20 21 22 17 19 28 27 28 28 29 29 29 29 31 31 31 30 30 29 29 31 32 33 34
30 29 20 24 23 20 17 18 22 25 27 27 29 30 29 29 27 25 24 19 21 19 19 15 26 31 30 29 29 28 27 28 28 29 30 30 31 32 33 33 33 33 31 31
26 24 22 22 29 29 31 31 30 31 35 35 31 30 28 25 25 23 18 20 17 14 16 26 32 31 29 28 27 26 25 30 29 27 29 32 32 30 32 34 34 31 32 30
23 23 25 28 29 31 33 35 34 32 33 32 31 27 25 23 22 19 17 12 12 20 31 32 30 28 26 26 26 26 26 26 26 25 25 26 31 30 27 29 31 32 31 29
21 28 31 33 31 33 34 33 31 32 31 30 25 22 13 25 19 16 20 21 29 31 32 29 27 26 26 26 26 28 27 25 24 24 24 25 26 27 26 24 26 29 30 32